Category :
No.FOSSQuestion TitleDateViewsVotesAnswersUser
Affordable-LaptopNot Able to install linux-image-4.19.1-iitb2021-10-24 24/10/21100Kishan
DWSIMTemperature did not converge.2021-10-23 23/10/21900Grace
OpenFOAMPermission denied for accessing any file/folder from the main directory(run dir…2021-10-19 19/10/212903Bhavik_S
DWSIMHow can I add aluminum sulfate to the stream2021-10-18 18/10/212200naa17
ScilabScilab/Xcos Simscape Multibody aquivalent2021-10-18 18/10/212000logothp
RWhat do you listen to to relax after a tiring working day?2021-10-16 16/10/211900Llepet
Affordable-LaptopUnable to enter BIOS2021-10-15 15/10/212802Kishan
DWSIMgame online fun !!!!!!!!2021-10-15 15/10/212801gmmelissa
OsdagChannel Sections in Bam-Beam shear connection2021-10-13 13/10/214202taqi79
OpenFOAMExcel Tasks Help2021-10-11 11/10/213600MargoAdams
DWSIMadjust optimize2021-10-08 08/10/214001Siretb
eSimHow to Get Best Laptops in 20212021-10-06 06/10/215403GSDBreeds
OpenFOAMIs there a way to run windows software on Chromebook?2021-10-06 06/10/214100Dahlia
DWSIMAmine Processing2021-10-06 06/10/216601nothing12…
FOSSEE LaptopPrevious installation2021-10-03 03/10/213900GSMahapat…
Affordable-LaptopHow to play games online?2021-09-29 29/09/216302jameszen
SBHSWhat do you know about stock indices?2021-09-27 27/09/218104Andriano20
eSimwishesfestivals2021-09-27 27/09/217801nationafe…
eSimR_Variable value in simulation2021-09-26 26/09/216701tkrudresh
eSimhow to resolve Conflict problem between pins. Severity Error2021-09-26 26/09/219700tkrudresh
FOSSEE LaptopGet A Solution Of Norton Antivirus To Fix Issue2021-09-25 25/09/216501brusmitt03
PythonWhy Learn Ethical Hacking?2021-09-24 24/09/216601maithilis…
Affordable-LaptopUnable to login even with correct password.2021-09-22 22/09/217702sandip.sa…
FOSSEE Laptopmcafee.com/activate2021-09-21 21/09/217201jamespete
OpenFOAMRegarding problem in residual plot2021-09-17 17/09/219803chaitu208
OpenFOAMNegative Initial temperature error in openfoam2021-09-16 16/09/2117601chaitu208
eSimError while submitting circuit simulation proposal form in esim2021-09-15 15/09/219002dikshita
OpenFOAMgetting cell dimensions2021-09-14 14/09/219901mscoooldnb
DWSIMMultitube PFR2021-09-13 13/09/2110001Jarod_Che…
DWSIMParallel and series reactions2021-09-13 13/09/219300Jarod_Che…
DWSIMError "casting string "1.0" to type "Double" is invalid"2021-09-12 12/09/2111401Lee2rock
ScilabProblem creating a checkbox uicontrol2021-09-09 09/09/219702DaveC49
OpenPLChow to upgrade LED to 24V industrial light need circuit diagram?2021-09-09 09/09/218001aricjoshua
DWSIMCO2 scrubbing from hydrocarbon stream2021-09-06 06/09/2112002Madzanga_…
OpenFOAMdsmcFoam + cht solver combination possible?2021-09-05 05/09/2110501milinmart…
DWSIMwaiting for approval2021-09-03 03/09/2112401Lokeshcha…
OpenFOAMhow can we average our data over any time interval, after the simulation is fin…2021-09-02 02/09/2112703mscoooldnb
Scilab Toolbox2021-09-01 01/09/2111800brusmitt03
FOSSEE LaptopStruggling to setup marathi for libre office2021-09-01 01/09/2110901nilesh.hi…
OpenFOAMlarge eddy simulation filtering2021-08-31 31/08/2112401mscoooldnb
Affordable-LaptopMigration to Manjaro Linux - Any feedback ?2021-08-30 30/08/2113602nilesh.hi…
Scilabold files interfere with new graphics2021-08-30 30/08/2111701poormystic
ScilabPower System Stability and Control book2021-08-28 28/08/2112401BasmaMoha…
DWSIMHow attach DWSIM Simulation file to a post2021-08-27 27/08/2111701atronoush
PythonCat command window me kese chalayenge2021-08-26 26/08/2111201nadim
eSimyour circuit contains unknown model...2021-08-26 26/08/2112601ankitbanj…
PythonCat primes.txt command2021-08-23 23/08/2114403nadim
Affordable-LaptopI wish to configure to use marathi on the libre office on linux. Help requred t…2021-08-21 21/08/2111401nilesh.hi…
DWSIMCatalytic parallel Reaction in PFR reactor2021-08-17 17/08/2116704amirnmt
PythonWhy Machine learning is so Trending technology?2021-08-17 17/08/2114702Anu0123
OpenFOAMCalculate water depth in openfoam2021-08-17 17/08/2116402gatonegro
ScilabHow to resolve a system of edo2021-08-15 15/08/2114000lili2021
ScilabIntegration to get surface 3D plot2021-08-13 13/08/2114901hannabepr…
FOSSEE LaptopListen To Radio On Laptop and Stay Safe2021-08-13 13/08/2114101Llepet
OpenFOAMRegarding Time Dependent BC2021-08-12 12/08/2116002prth_bndl
FOSSEE LaptopVibrating brightness2021-08-12 12/08/2112501GSMahapat…
ScilabI need an equation in correct format and code.2021-08-10 10/08/2117108hannabepr…
DWSIMIndex was outside the bounds of array2021-08-09 09/08/2116001sahil1410
DWSIMIndex was out of bound array, increasing iterations of compressor2021-08-06 06/08/2116701sahil1410
DWSIMquery regarding condenser and reboiler2021-08-04 04/08/2117302preethipa…
DWSIMerror pops up like this-infinite loop detected, place recycle blocks2021-08-04 04/08/2118001preethipa…
DWSIMConvergence Error2021-08-02 02/08/2117301sahil1410
OpenModelicaPower Plant using ThermoPower Library OpenModelica2021-07-30 30/07/2119001Vivek_Sin…
Affordable-Laptophigh visibility vest2021-07-29 29/07/2115000highvissh…
OpenFOAMHow to find internal field2021-07-27 27/07/2120402prth_bndl
OpenFOAMHow to write a udf in openfoam2021-07-26 26/07/2121801prth_bndl
ScilabÉcrire une valeur numérique dans OpenPLC à partir de XCOS !2021-07-26 26/07/2116500cfillion
ScilabSymbolic toolbox installation2021-07-25 25/07/2119001peerudma7…
eSimhow to install esim on windows 7 (32 bit stystem ) version2.0 or version2.12021-07-25 25/07/2120803UMESH
eSimCan't find Op-amp2021-07-23 23/07/2120101Pravallik…
eSimRegarding Components2021-07-23 23/07/2119402Pravallik…
OpenFOAMerror in openfoam2021-07-23 23/07/2121405prth_bndl
IITB-ISRO-AICTE Mapathonaws solution architect training2021-07-22 22/07/2115601genevatran
DWSIMAdding compounds-query2021-07-22 22/07/2118201preethipa…
DWSIMHeterogeneous Catalytic Liquid Phase Reaction - Concentration Profile false2021-07-22 22/07/2121708willex
eSimNGspice simulation error....2021-07-21 21/07/2119704ankitbanj…
DWSIMAbsorption column-edit appearance2021-07-21 21/07/2117801preethipa…
DWSIMAbsorption column2021-07-21 21/07/2117801preethipa…
DWSIMAdding compounds2021-07-21 21/07/2117801preethipa…
DWSIMCSTR -different answer2021-07-20 20/07/2120102preethipa…
eSimError While creating digital model using NGHDL feature.2021-07-19 19/07/2122202ankitbanj…
OpenFOAMRegarding Error in opefoam2021-07-18 18/07/2120107prth_bndl
DWSIMTherminol np-1 could not found2021-07-17 17/07/2119101kulkarnih…
eSimUnable read analysis file please help2021-07-14 14/07/2121303aayushjam…
eSimesim_pspice library not found2021-07-13 13/07/2120604kalyanicc
OpenPLCIdle Games online2021-07-13 13/07/2117802linly
DWSIMsugar simulation2021-07-10 10/07/2119901m.dejbakh…
DWSIMPhthalic Anhydride2021-07-10 10/07/2124201Blahblahbu
DWSIMInput stream value changes over time simulation2021-07-08 08/07/2120001kulkarnih…
eSimClipper/ Clamper Transfer characteristics2021-07-06 06/07/2139001anupvasav…
eSimERROR While creating digital model using NGHDL feature.....2021-07-05 05/07/2122001ankitbanj…
OpenFOAMMass Flow Rate Calculation coding2021-07-04 04/07/2124201Ste07
DWSIMBiomass pyrolysis process2021-07-04 04/07/2125201vikram.ch…
DWSIMPSV valves in DWSIM2021-07-03 03/07/2124301kulkarnih…
eSimfootprint of mosfet2021-07-03 03/07/2121901probeer
OpenFOAMhow to construct another phi in interFoam?2021-07-03 03/07/2121801sourav8016
PythonError in python3-pip installation2021-07-02 02/07/2122201meetbiplob
DWSIMResults for vapour-liquid separator are showing zero molar flow rates for compo…2021-07-02 02/07/2120802190020056
OpenFOAMSimulating an Aerofoil2021-07-01 01/07/2122001abdulxbaa…
OpenFOAMwhat does fvc::interpolate(rho) actually do in interFoam?2021-07-01 01/07/2121401sourav8016
eSimError eSim : Cannot access Modelica map file --- .esim folder No section: 'eSim'2021-06-29 29/06/2124503EE@314
DWSIMError in stoichiometry2021-06-28 28/06/2121501190020056
ScilabFind maximums and minimums of an approximation of a funtion given by a serie of…2021-06-28 28/06/2121702patufet99
eSimCannot access medelica map file ---.esim floder no section:esim2021-06-28 28/06/2122602UMESH
DWSIMError while creating material streams2021-06-27 27/06/2121201190020056
DWSIMFlash algorithm not found2021-06-26 26/06/2123404kulkarnih…
DWSIMHow do I add a filter separator in DWSIM2021-06-25 25/06/2120701phani4cts
DWSIMSteps to add hypo components2021-06-25 25/06/2121301phani4cts
DWSIMError while creating new compound (Fe and Fe2O3)2021-06-25 25/06/2120401190020056
eSimNot able to add the skywater130 nm technology file in ngspice simulation2021-06-24 24/06/2129505ksooryakr…
DWSIMError in DWSIM in Liquid - Liquid Extraction2021-06-24 24/06/2124201Blahblahbu
DWSIMCAPE OPEN unit operation (ChemSep column) - Error not responding2021-06-23 23/06/2122401Vrajpatel
OpenFOAMRegarding mappedpatch inlet for wallboiling tutorial from reactingTwoPhaseEuler…2021-06-23 23/06/2124601drijazfaz…
OpenPLCRe: Covid in Scotland: First doses of Oxford vaccine administered2021-06-23 23/06/2118300playsolit…
ScilabFiltering the signal2021-06-23 23/06/2122600husee
eSimNGSPICE simulation error( in Python Plot)2021-06-23 23/06/2127001ankitbanj…
DWSIMintroducing reactions involving ionic species in absorber column2021-06-21 21/06/2122600ayushc94
eSimConfusion using of port?2021-06-19 19/06/2124601abdullah_…
eSimeSim support on archlinux or arch-based linux distros2021-06-19 19/06/2126801pritomg
DWSIMReactive equilibrium column2021-06-17 17/06/2126101t.galling…
Scilab Toolboxxcos defined function for flat top sampling2021-06-15 15/06/2121000ECE508
DWSIMDynamic Error in Heat Exchanger2021-06-15 15/06/2124801varun123
Scilabunable to view plots2021-06-14 14/06/2125003sachint
eSimInstructions to compile source code from scratch2021-06-13 13/06/2127401demonkill…
DWSIMError in DWSIM Open-CAPE editor2021-06-12 12/06/2126901Blahblahbu
eSimCurrent source2021-06-11 11/06/2125001Kiran_123
eSimCurrent measurement2021-06-11 11/06/2125601Kiran_123
eSimERROR_IN NGHDL feature...2021-06-08 08/06/2129702ankitbanj…
eSimUnable to create a project in eSim and get started2021-06-05 05/06/2126702Priyamvada
ScilabEcrire le bit d’OpenPLc sur Xcos de Scilab !2021-06-05 05/06/2123000cfillion
ScilabHow scilab calculate modulo(m, n) ?2021-06-04 04/06/2123100fabiobair…
eSimesim 2.1 installed but not opening2021-06-03 03/06/2130802bganesamo…
ScilabNeural networks in scilab2021-06-02 02/06/2123000kulkarnih…
DWSIMWater saturation model not running2021-06-02 02/06/2129301diego.gar…
OpenModelicaThermophysical properties inclusion in open modelica model2021-05-31 31/05/2126901yogesh_ka…
eSimhow to use oscilloscope(CRO) in eSim simulation2021-05-28 28/05/2141607tkrudresh
DWSIMbiomass gassification2021-05-26 26/05/2129401yamini21a…
ScilabGenerate Signals in Scilab2021-05-25 25/05/2126501Dragrex
eSimNot able to install eSim in Ubuntu20.042021-05-25 25/05/2134102ksooryakr…
PythonRequire python code of youtube data Scraping for any youtube video2021-05-24 24/05/2125801DIPANKARB…
ScilabSCILAB 6.1.0 - error with image processing basic commands2021-05-21 21/05/2132201Graceline
eSimError in the ngspice simulation for the nghdl2021-05-21 21/05/2131302ReuelReub…
eSimsubckt parameter2021-05-20 20/05/2126901Rodrigo
OpenFOAMTime control settings for a periodic bulk forcing2021-05-20 20/05/2134105Samridh
DWSIMUsing ChemCad for absorption involving Henry constant's2021-05-20 20/05/2127302pk_rulz
ScilabProblem with data import from Excel to Xcos2021-05-19 19/05/2130806BBS394
OsdagOSDAG opens but the inner designs show errors.2021-05-19 19/05/2124901SumanSube…
OsdagProblem opening OSDAG version 2021!!!2021-05-18 18/05/2127901SumanSube…
DWSIMInstallation of DWSIM latest version on my MacBook pro2021-05-16 16/05/2127401ssmazumdar
Affordable-LaptopCleaning using BleachBit2021-05-15 15/05/2132301GSMahapat…
eSimRegarding Screening Test Exam2021-05-14 14/05/2132701auch_1708
eSimEdit Project submission2021-05-14 14/05/2130801DilipD
OpenFOAMHow can I convert a steady state solver to a transient state solver? (time-depe…2021-05-13 13/05/2130904ramakantg…
Affordable-LaptopRDP Support in Kolkata2021-05-12 12/05/2126300GSMahapat…
OsdagUbanle to Run Osdag Software2021-05-12 12/05/2127405Ammar
eSimDoubt regarding the given task2021-05-12 12/05/2146801Keshav_ve…
eSimStimulation error in NGHDL2021-05-12 12/05/2131601Keshav_ve…
Affordable-LaptopMemory and Battery2021-05-11 11/05/2128801GSMahapat…
DWSIMThe case which an error occurred only in the newest version of DWSIM2021-05-10 10/05/2130602ssm9725
ScilabCrossover frequency2021-05-09 09/05/2128601Marcus_Fo…
DWSIMFlowsheet calculation error2021-05-08 08/05/2130001Afridi
eSimuploading .vhdl file2021-05-06 06/05/2137401BhawarthG…
PythonPython class clarification2021-05-06 06/05/2136901lp1572
eSimNGHDL feature2021-05-05 05/05/2142013BhawarthG…
eSimNGHDL Schematic2021-05-05 05/05/2133901DJangale
ScilabFreedom to modify output of/input for xcos model (automation)2021-05-04 04/05/2131602sonofel
eSimError in NGHDL window2021-05-04 04/05/2138203kishan1823
Osdagosdag software WIN10 64bit not opening2021-05-04 04/05/2137202hitendra.…
OpenFOAMSwirl Atomization2021-05-04 04/05/2129801melmuza
eSimeSim Not Opening2021-05-03 03/05/2137002sohamsen2…
eSimMCQ Exam date2021-05-03 03/05/2139303pratik
DWSIMFlash Drum Upstream Pressure effect2021-05-03 03/05/2130803diego.gar…
PythonFull Stack Training in Delhi2021-05-01 01/05/2131600sasvbaedu…
PythonVBA Macro Training in Delhi2021-05-01 01/05/2129500sasvbaedu…
PythonArtificial Intelligence Training in Delhi2021-05-01 01/05/2130200sasvbaedu…
ScilabCode optimization by avoiding Xcos recompilation and others.2021-05-01 01/05/2132702AnaCastro
DWSIMHow can I select a catalyst Catalyst2021-04-29 29/04/2133202venkatesh…
DWSIMRe-initialization2021-04-29 29/04/2129002venkatesh…
DWSIMCrude oil Flash in Tank2021-04-28 28/04/2132602diego.gar…
eSimproblem in wire connection2021-04-27 27/04/2133001abhinit41
OpenFOAMgcc: error: unrecognized command line option ‘--showme:link’2021-04-27 27/04/2151401Thanozzz
OsdagUnable to run the OSDAG software2021-04-27 27/04/2130301steelpebd…
DWSIMmaterial balance for a component is not balanced2021-04-26 26/04/2133902jogesh24
DWSIMConversion expression2021-04-25 25/04/2130502nirottam
DWSIMError while installation of version 6.4.82021-04-25 25/04/2131401nirottam
OpenFOAMHow to put pressure when using cyclic boundary condition2021-04-24 24/04/2133002irwin
Affordable-LaptopSound cannot be heard through radio media2021-04-23 23/04/2129502MirandaPh…
Rinstalling R2021-04-22 22/04/2129402shamitha_…
DWSIMCAPE OPEN Block (Chemsep Column) - Error2021-04-21 21/04/2134802Kumaran
Affordable-LaptopShould choose Mac or dell2021-04-20 20/04/2128301Junnco
OsdagMoment Connection For H to H beam2021-04-20 20/04/2136707SaiKiran
DWSIMLiquid-liquid extraction2021-04-20 20/04/2141702lucianag
Affordable-Laptopunexpected endfunction, expecting end2021-04-20 20/04/2128300eowyn
eSimesim_pspice libraries2021-04-19 19/04/2136502BhawarthG…
Pythonmatplotlib and numpy2021-04-18 18/04/2133801ganupam
DWSIMRecycle block not functioning2021-04-18 18/04/2140101sunilkrsa…
DWSIMURGENT HELP NEEDED: In selected components in CAPE OPEN simulation component ar…2021-04-17 17/04/2135203advidhate
OsdagAbout latest version2021-04-16 16/04/2130701Murali
DWSIMmodification in firmware for pwm freq setup ?.2021-04-15 15/04/2130601jackyjoy1…
DWSIMIssue with CSTR!!!2021-04-14 14/04/2133102shahid03
DWSIMABS-01: Object reference not set to an instance of an object2021-04-09 09/04/2134001lucianag
OpenFOAMRegarding this error2021-04-07 07/04/2137307takeboy
DWSIMInstallation Issue in MacBook with M12021-04-04 04/04/2143407Sam_Ver
ScilabGraph of a multivalued mapping in Scilab.2021-04-03 03/04/2133801pradip
ScilabFatal error: exception Failure("The number of equations doesn't match the numbe…2021-03-29 29/03/2141901Biren_35
ScilabPlotting Excel data in SciLab2021-03-28 28/03/2138502Koustav_P…
ScilabNeed to develop the scilab code for the following problem2021-03-28 28/03/2136400Shankarma…
DWSIMProblema no modelo cinético catalítico heterogêneo - Reator de amônia2021-03-27 27/03/2137605tuiza@2021
DWSIMController block on DWSIM for Mac2021-03-27 27/03/2141402lucianag
Scilab"check or define function %c_a_ce for overloading"2021-03-26 26/03/2138604TiagoFloa…
ScilabGraphic user interface(GUI)2021-03-26 26/03/2140200kocuricid…
eSimNew device Model2021-03-26 26/03/2143103shubhangi…
ScilabHow to Read a Text File and Plot it in a Surface 3d Plot2021-03-25 25/03/2139502Henphys
ScilabError 229- Operands of / and \ operations must not contain NaN of Inf.2021-03-24 24/03/2132900MartimCh
IITB-ISRO-AICTE MapathonPublication of maps2021-03-21 21/03/2130700rohangama…
ScilabBack signal (analigique) from Xcos to Openplc Runtime2021-03-20 20/03/2141001cfillion
ScilabProblem is Matlab to Scilab Conversion2021-03-16 16/03/2140902TahaNadeem
eSimIssue in opening of esim software Nghdl2021-03-16 16/03/2162501Ashoo
eSimError with NGHDL window2021-03-14 14/03/2143004auch_1708
DWSIMCreate a reaction2021-03-12 12/03/2140802lucianag
DWSIMWhich property package do you recommend for liquid phase systems and reactions?2021-03-10 10/03/2140603James9923
OsdagOSDAG not opening2021-03-10 10/03/2141601Ankit
Affordable-LaptopBluetooth speaker2021-03-09 09/03/2140905GSMahapat…
IITB-ISRO-AICTE MapathonCertificates2021-03-06 06/03/2142500Harsh1999
ScilabFOT in Scilab relating2021-03-06 06/03/2137601akhilnand…
ScilabImport of Modelica models in Scilab environment2021-03-06 06/03/2137101akhilnand…
Scilabfacing problems with designing a counter2021-03-05 05/03/2138304gary36
DWSIMHelp! Error in CAPE Open Unit Operation2021-03-05 05/03/2148201whyprajwal
DWSIMHow to model and simulate absorption refrigeration system in DWSIM or Aspen Plus2021-03-04 04/03/2141402cenker1341
ScilabSciLab on Linux Ubuntu HiDPI (4k) Screen2021-03-04 04/03/2139200turgu1
FOSSEE LaptopSpeaker-Mic-Headphone problem in Google Meet2021-03-03 03/03/2133700GSMahapat…
OpenFOAMhow i can add the scale function in open foam2021-03-03 03/03/2140403MOKRANI_A
Affordable-LaptopOsdag not opening on clicking2021-03-03 03/03/2133601BhanuTeja
DWSIMSCILAB in DWSim 6.32021-03-02 02/03/2136401nihal1050
OpenFOAMboundary conditions2021-02-27 27/02/2144502sahar
ScilabHi im so confused please help me with this sample question2021-02-23 23/02/2140201Madarasix…
OsdagProvision of continuity plate2021-02-22 22/02/2136801Bharath
DWSIMEquilibirum Reactor energy flow2021-02-22 22/02/2140301Neehar
Python@6:20 Indentations before print() in for loop2021-02-22 22/02/2140501aki150596
ScilabVecteur sur scilab2021-02-21 21/02/2139700AlSaher
eSimNgspice taking too long for simulation. Check netlist file to change simulation…2021-02-20 20/02/2151002ashutosh2…
eSimPop up of Unknown Model while doing KiCad to Ngspice2021-02-20 20/02/2142501ashutosh2…
DWSIMI want to change number of input ?.2021-02-20 20/02/2139401jackyjoy1…
FOSSEE LaptopMic problem in Google Meet2021-02-20 20/02/2136902GSMahapat…
IITB-ISRO-AICTE MapathonE-certificates2021-02-19 19/02/2148810Anmol
OsdagDesign of fixed base plate2021-02-18 18/02/2143201Bharath
OpenFOAMValue of diffusion coefficient in scalar transport foam2021-02-18 18/02/2143901Harsh235
OsdagSelection of suitable column from the list2021-02-18 18/02/2139601Bharath
Scilab ToolboxRegarding Screening Task For the Summer Fellowship2021-02-17 17/02/2136201_Abhishek…
eSimHOW I SUBMITT MY SECOND PROJECT.2021-02-17 17/02/2145702Prashant@…
DWSIMSupplying exothermic energy reaction from the burner to the PFR2021-02-16 16/02/2141301nihal1050
eSimError in NGHDL2021-02-15 15/02/2148911Sudharshan
eSimvhdl file not uploading in nghdl window2021-02-14 14/02/2145101Resh_shar
IITB-ISRO-AICTE MapathonRegarding Prize for Champion2021-02-13 13/02/2145400faizan273
eSimMore tutorials on Digital ,RF design other than spoken tutorials2021-02-13 13/02/2143801Resh_shar
eSimPractice Problem 2 Day 12021-02-12 12/02/2141601Minautee
eSimFootprint Not available for lm7412021-02-12 12/02/2148002Karthick_…
DWSIMError on Chemsep Absorption Column2021-02-12 12/02/2147103brunofuso
eSimeSim_Pspice or Pspice library not available in KiCad libraries 22021-02-11 11/02/2143101Resh_shar
eSimPractice problem for day1 workshop2021-02-11 11/02/2143501Resh_shar
eSimCannot access Modelica map file --- .esim folder No section: 'eSim'2021-02-11 11/02/2146601shashankc…
IITB-ISRO-AICTE MapathonRegarding Prize for Winners2021-02-10 10/02/2152711AnkitNobi
DWSIMCombining two DWSIM files2021-02-08 08/02/2144404sachit
OpenFOAMPower Law boundary inlet velocity condition2021-02-06 06/02/2148401vaishali25
DWSIMHow to model sodium phenolate2021-02-05 05/02/2142602varunayya…
ScilabNoise cancellation: Window-Sinc filter2021-02-04 04/02/2146800N_R2103
Pythonpython aws cli broker with SAML ADFS2021-02-03 03/02/2144701issacthoma
Affordable-LaptopDefinition best-writing-service2021-02-02 02/02/2141800helmatteo
DWSIMEXERGY ANALYSIS2021-02-01 01/02/2150101Kenzo
Pythonpython debug adapter not being found in vscode - WSL:Ubuntu2021-01-28 28/01/2181801samrtr
OpenFOAMWing Motion - Dynamic Mesh using pimpleFoam2021-01-27 27/01/2154508vaishali25
eSimMicrocontroller simulation2021-01-27 27/01/2147102ultralowp…
PythonCan I run python script in Alteryx that uses pandas and connects to MS SQL serv…2021-01-25 25/01/2141101soumyarani
IITB-ISRO-AICTE MapathonPublication of result reg2021-01-24 24/01/2157201manimuthu
Pythonhow can I consume django web service in C#?2021-01-22 22/01/2143601samrtr
IITB-ISRO-AICTE MapathonRegarding My Submission2021-01-19 19/01/2148611ay6291693
PythonHow to use Flutter as UI for application written in python?2021-01-18 18/01/2147203samrtr
IITB-ISRO-AICTE MapathonWhen results will be declared?2021-01-16 16/01/21596-11Harsh1999
ScilabExport to FMU failed2021-01-15 15/01/2152000dhanush_sr
IITB-ISRO-AICTE Mapathonwill I get a certificate for not?  (query)2021-01-15 15/01/2154201mapathon1…
IITB-ISRO-AICTE MapathonResults date2021-01-15 15/01/2155513Siddharth
DWSIMDWSIM Excel add-in2021-01-14 14/01/2149501Hans_Nijm…
eSimRun eSim on windows 32-bit system2021-01-14 14/01/2146801nmtesim
ScilabODE with mass Matrix : M(t,y)*dy/dt=F(t,y)2021-01-12 12/01/2146200Yunsha
IITB-ISRO-AICTE MapathonRegarding Result declaration2021-01-12 12/01/2155803naiteekma…
Pythondevops training in hyderabad2021-01-09 09/01/2149001pasupiren
eSimhow to give supply and ground to 74LS48IC2021-01-09 09/01/2146201travindra
DWSIMmultiplying flows2021-01-08 08/01/2150301Faustyna09
ScilabNoise cancellation using single band reject ideal filter2021-01-07 07/01/2150700N_R2103
Scilabspectrum analysis2021-01-07 07/01/2147500N_R2103
PythonTab completion is not working!2021-01-06 06/01/2145001Harshith_…
Affordable-LaptopFn key enabled in windows 10.. how to disable it ?2021-01-06 06/01/2148003nilesh.hi…
PythonAWS Training in Chennai2021-01-06 06/01/2147301jessica_j…
eSimOP Analysis, Unable to read Analysis File2021-01-05 05/01/2146202CEMeyer
IITB-ISRO-AICTE MapathonISRO MAPATHON2021-01-04 04/01/2152501mapathon1…
Pythonplease give me tutorial2021-01-02 02/01/2147701bhattiboyy
ScilabFile Browser without directories and files2021-01-01 01/01/2151802RudiLehn
IITB-ISRO-AICTE MapathonSubmission file name2020-12-31 31/12/2047902Nakshatra…
ScilabXcos active load2020-12-31 31/12/2048000Damien_No…
IITB-ISRO-AICTE MapathonRegarding submiting multiple files2020-12-30 30/12/2049300Abi135
IITB-ISRO-AICTE MapathonHaven't received Registration email and Moodle link[URGENT]...2020-12-30 30/12/2089000yashrajmo…
IITB-ISRO-AICTE MapathonMapathon 2020 Registration number and Submission link2020-12-29 29/12/2047601dks20
IITB-ISRO-AICTE Mapathondate of Submission2020-12-29 29/12/2046701naiteekma…
OpenFOAMIncorrect lift co-efficients with buoyantBoussinesqPimpleFoam2020-12-28 28/12/2055005damu1414
IITB-ISRO-AICTE MapathonSubmission Query2020-12-27 27/12/204860118bpl004@…
eSimInstallation in windows gives following error and unable to start new project2020-12-27 27/12/2058303saravana_…
ScilabI need help to solve this exercice2020-12-26 26/12/2051800Matt1208
IITB-ISRO-AICTE MapathonTeam name or team members not showing2020-12-25 25/12/2047601Anmol
IITB-ISRO-AICTE Mapathonhow to download District map for road network maping2020-12-25 25/12/2049801manimuthu
eSimMeasurement of resistance in eSim ?..2020-12-24 24/12/2050001alexsunny…
IITB-ISRO-AICTE MapathonRegistration confirmation2020-12-24 24/12/2054201Pranathi
IITB-ISRO-AICTE MapathonCONFUSION ABOUT REGISTRATION2020-12-23 23/12/2049901subhasis@7
IITB-ISRO-AICTE MapathonRegarding Data to be used2020-12-22 22/12/2052601Anmol
IITB-ISRO-AICTE MapathonWhy other participants name is not appearing on the Moodle website?2020-12-22 22/12/2049301Vrunda_Ta…
IITB-ISRO-AICTE MapathonTeam members Problems2020-12-22 22/12/2049001Siddharth
IITB-ISRO-AICTE MapathonRegistration confirmation not received2020-12-21 21/12/2051901salilk
IITB-ISRO-AICTE MapathonRegistration Regarding2020-12-21 21/12/2045601Kaarthik@…
IITB-ISRO-AICTE MapathonCHOOSING A STATE OR DISTRICT2020-12-21 21/12/2049601subhasis@7
IITB-ISRO-AICTE MapathonFilling of Registration form2020-12-20 20/12/2046801vysakhp
IITB-ISRO-AICTE MapathonNot get Registration number or Link yet2020-12-20 20/12/2047501Anmol
IITB-ISRO-AICTE MapathonRegarding registration for confirmation mail2020-12-20 20/12/2045901Chandru@29
IITB-ISRO-AICTE MapathonFlood Maping2020-12-20 20/12/204820126abhishe…
IITB-ISRO-AICTE MapathonNon availability of latest data2020-12-20 20/12/2047601rohangama…
IITB-ISRO-AICTE MapathonRegarding submission process2020-12-20 20/12/2047702uditkumar
IITB-ISRO-AICTE MapathonDoubt regarding softwares to be used2020-12-19 19/12/2047601avalanche…
FOSSEE LaptopPanel settings2020-12-19 19/12/2043601GSMahapat…
IITB-ISRO-AICTE MapathonI am studying in school and I am participating alone ,not behalf of school.In t…2020-12-19 19/12/2050001rdnjnaren
IITB-ISRO-AICTE MapathonData Usage- LANDSAT/SENTINEL For latest imgs2020-12-19 19/12/2046601shiva
PythonGenerate Automatic api documentation with nodejs2020-12-19 19/12/2046401samrtr
IITB-ISRO-AICTE MapathonRegarding dataset to use2020-12-19 19/12/2048201abhijeeti…
IITB-ISRO-AICTE Mapathoni have chosen land use land cover topic and to download data i need to fill a M…2020-12-18 18/12/2048303rdnjnaren
IITB-ISRO-AICTE MapathonMultiple registrations2020-12-18 18/12/2049403swapnarag…
IITB-ISRO-AICTE MapathonQUERY REGARDING MAPATHON2020-12-18 18/12/2050902naiteekma…
IITB-ISRO-AICTE Mapathonisro data link - reg2020-12-17 17/12/2047701manimuthu
IITB-ISRO-AICTE MapathonMultiple registraions2020-12-17 17/12/2049802Srinidhi
IITB-ISRO-AICTE MapathonRegarding Registration2020-12-17 17/12/2050101Patil.sun…
IITB-ISRO-AICTE MapathonChange of District2020-12-17 17/12/2049001Siddharth
IITB-ISRO-AICTE MapathonStatewise Healthcare indicator Map2020-12-17 17/12/20597011ay6291693
IITB-ISRO-AICTE MapathonClarification2020-12-16 16/12/2048602Siddharth
IITB-ISRO-AICTE MapathonMoodle-Regarding2020-12-16 16/12/2057712Team_Gene…
FOSSEE Laptopbrightness decreases after 10-15 seconds ?..2020-12-16 16/12/2046001alexsunny…
IITB-ISRO-AICTE MapathonRegarding map submission2020-12-15 15/12/2047802Aryan_Rag…
IITB-ISRO-AICTE MapathonIs there any Demo for each problem statement?2020-12-15 15/12/2052701gpalanimca
IITB-ISRO-AICTE Mapathonby what file format should we have to submit the final map2020-12-15 15/12/2053301rdnjnaren
IITB-ISRO-AICTE MapathonData download -Regarding2020-12-15 15/12/2051401user11
IITB-ISRO-AICTE MapathonHelathcare indicators2020-12-15 15/12/2049202mapathon_…
IITB-ISRO-AICTE MapathonHouse Site plan data Retrieval2020-12-15 15/12/2047601mapathon_…
eSimeSIM - ubuntu 202020-12-15 15/12/2057001moniqal
eSimHow to get a certificate for the course?2020-12-14 14/12/2055801prp79
Scilaborder matrix2020-12-14 14/12/2052201oepbefem
eSimwrong inverter output2020-12-14 14/12/2054701moniqal
IITB-ISRO-AICTE MapathonTeam Registered but yet to receive confirmation mail2020-12-14 14/12/2048901hareeshna
IITB-ISRO-AICTE MapathonRegarding change of district selected2020-12-12 12/12/2052002farzana_i…
IITB-ISRO-AICTE MapathonCan we use software other than QGIS2020-12-12 12/12/2048102Harsh1999
IITB-ISRO-AICTE MapathonCan we tableau?2020-12-12 12/12/2053601Onkar
PythonClass variable reset to default values when I try to access them2020-12-12 12/12/2049101samrtr
IITB-ISRO-AICTE MapathonTopic regarding2020-12-12 12/12/2050001Abi135
DWSIMCannort import python files present in lib folder in ironpython2020-12-11 11/12/2049601ayush_set…
IITB-ISRO-AICTE MapathonCan one person submit multiple maps? Will that require multiple registrations b…2020-12-11 11/12/2059001Swapnil13
IITB-ISRO-AICTE MapathonBasic mapping expertise2020-12-10 10/12/2052001salilk
IITB-ISRO-AICTE Mapathondepartment for participation2020-12-10 10/12/2050502vaishnavi…
IITB-ISRO-AICTE MapathonRegd. registration2020-12-10 10/12/2054301MALAVIKAAR
IITB-ISRO-AICTE MapathonRegd. drainage and road network maps.2020-12-10 10/12/2049301MALAVIKAAR
IITB-ISRO-AICTE MapathonRESULT SUBMISSION2020-12-10 10/12/2057202Linda_The…
IITB-ISRO-AICTE MapathonPart wise state mapping2020-12-10 10/12/2052202SHAILENDE…
DWSIMDestilación Reactiva en Chemsep2020-12-10 10/12/2053702AriPino
eSimEsim circuit submission2020-12-09 09/12/2052301Monica
IITB-ISRO-AICTE MapathonCertificate regarding2020-12-09 09/12/2054301Abi135
IITB-ISRO-AICTE MapathonGive a clarity about that..2020-12-09 09/12/20527-11saismart@7
IITB-ISRO-AICTE MapathonUsing Landviewer Platform2020-12-09 09/12/20468-11Shiwani
IITB-ISRO-AICTE MapathonMap making regarding2020-12-09 09/12/2052101Abi135
OpenFOAMMPI parallel run issue for RBF motion solver in foam extend 4.02020-12-09 09/12/2053002guptaram@
eSimProject approval and disapproval2020-12-09 09/12/2053101Monica
DWSIMCooling tower2020-12-09 09/12/2065301ross14
IITB-ISRO-AICTE MapathonCriteria for Certificate2020-12-09 09/12/2051501naiteekma…
IITB-ISRO-AICTE MapathonGIS software regarding2020-12-08 08/12/2049501Abi135
eSimEsim project upload2020-12-08 08/12/2050101Monica
Scilabexport bode diagramm2020-12-07 07/12/2052500davarr76
IITB-ISRO-AICTE MapathonRoad Network and Drainage Map2020-12-07 07/12/2049201pkstiyara
IITB-ISRO-AICTE MapathonParticipation2020-12-07 07/12/2053801Gautami
eSimCmos inverter2020-12-07 07/12/2058801Monica
IITB-ISRO-AICTE MapathonI selected Road Network/Drainage Maps topic on Mapathon, What's my work?2020-12-07 07/12/2056903giteshsha…
FOSSEE LaptopScilab code to Sandhi block.......................................2020-12-03 03/12/2044700Bobox
OpenFOAMOpenfoam cannot find a single face in the mesh which uses vertices2020-12-02 02/12/2061601guptaram@
ScilabLighting Xcos2020-12-02 02/12/2052100Zakary
OpenFOAMDecreasing the value of y+2020-11-29 29/11/2055011Harsh235
PythonSkewed t-distribution in python2020-11-28 28/11/2057102samrtr
DWSIMPlug flow reactor in DW Sim2020-11-27 27/11/2059601nihal1050
Scilab-ArduinoI can't detect encoder in scilab 5.5.2 with Arduino v.32020-11-26 26/11/2052000fazhad
PythonInteresting things with Python2020-11-25 25/11/2051401Etcher
Pythonhow can I adjust the variable values of my xcos model in scilab in real time?2020-11-24 24/11/2051801yoshi123
ScilabChanging variable values in scilab in real time2020-11-24 24/11/2057100PaY_DaY
PythonWhat is the worth and cost of the DataStage?2020-11-23 23/11/2054401Leo123
DWSIMFree ringtone website you know?2020-11-22 22/11/2057306Alice382
ScilabMATLAB function equivalent in Scilab2020-11-21 21/11/2065702RA2011047…
PythonTally ERP 9 using python2020-11-19 19/11/2055201samrtr
ScilabSciLab Compex ode2020-11-18 18/11/2059602Emil20
OpenPLCHow is forescout Docker different from a virtual machine?2020-11-18 18/11/2048300navyasri
ScilabTime format and conversion2020-11-18 18/11/2055000TommyS
Scilabplot the curve2020-11-17 17/11/2058700Mysterio
ScilabCombining Scilab with Xcos and Arduino Toolbox2020-11-16 16/11/2063402PaY_DaY
DWSIMHello, I would like to know what kind of databases can be linked with DWSIM, I …2020-11-09 09/11/2056502mery17mpg
Scilabplotting with Sciflt's plotsurf2020-11-09 09/11/2064901Dennis
eSimXpdf dependency while trying to install eSim 2.02020-11-08 08/11/2057702SrivLak
PythonPython - Pyproj Transform Returns inf for Blank Cell in CSV. How to ignore blan…2020-11-06 06/11/2053301samrtr
OpenFOAMObtaining csv data from xy plot in Paraview2020-11-05 05/11/2062501milinmart…
PythonHow to check the file type of python InMemoryUploadedFile file?2020-11-04 04/11/2057001samrtr
OpenFOAM2d pressure swirl atomizer using vof2020-11-03 03/11/2080309rrohit2004
DWSIMAdding Oil compound to DWSIM2020-11-02 02/11/2061201Alzio
ScilabIssue with axes labels on graphs2020-10-30 30/10/2060001Kaguro
ScilabError message ( in builtin)2020-10-30 30/10/2062001Thomas
OpenFOAMHow to create ZeroThicknessWall in SnappyHexMesh? Also Can I use toposet (or sp…2020-10-29 29/10/2076214drijazfaz…
OpenFOAMDifference between foam and algorithm in openfoam2020-10-29 29/10/2059001guptaram@
OpenFOAMRadial Basis Function (RBF) mesh motion solver for pitching motion2020-10-28 28/10/2068302guptaram@
OpenFOAMTypes of dynamic mesh motion solver for pitching airfoil2020-10-28 28/10/2080101guptaram@
OpenFOAMAMR to capture shocks2020-10-24 24/10/2064002milinmart…
PythonOkta Flask Integration2020-10-24 24/10/2057301junnusipra
OpenFOAMNon-Dimensional Contour Plots2020-10-23 23/10/2058603milinmart…
Pythonpython script slowing the data load to a database2020-10-23 23/10/2054701samrtr
ScilabHow to use call_scilab?2020-10-22 22/10/2062100silencefog
eSiminstallition problem2020-10-19 19/10/20623031shri
ScilabDebug() inderstanding2020-10-16 16/10/2056300WizKI
ScilabI'm having trouble during the simulation of Electrical Circuits in Xcos2020-10-16 16/10/2066903NandanN
OpenPLCWhat is SEO and suggest me one best seo course?2020-10-16 16/10/2055102andreasam
eSimabout uncox and pcox of mosfet2020-10-15 15/10/2060701harish
PythonDynamically schedule python scripts based off dates in csv2020-10-15 15/10/2061701soumyarani
eSimngspice error2020-10-15 15/10/2066203manasared…
eSimabout transistor operating region2020-10-14 14/10/2062201harish
FOCALResize an imported images2020-10-13 13/10/2055601Madhulika
FOCALFrames per second2020-10-13 13/10/2056201Madhulika
FOCALHow to set Time frame2020-10-13 13/10/2055601Madhulika
FOCALSynfig Studio 1.2.2 canvas resize2020-10-13 13/10/2054701usha
FOCALSynfig Studio 1.2.22020-10-13 13/10/2083902usha
DWSIMLINUX MANJARO2020-10-12 12/10/2073404Nef259
eSimcan we 10bit adc simulations with opensource PDK?2020-10-11 11/10/2059001sai_githe…
eSimabout kicad netlist query2020-10-10 10/10/2060101chethanb
Affordable-Laptopblack screen2020-10-09 09/10/2055602rucha
DWSIMRadFrac Model2020-10-08 08/10/2066201pawan1848
eSimtransistor Region2020-10-08 08/10/2063401manasared…
Affordable-LaptopISO File for the IITB version OS2020-10-07 07/10/2058301arsingh
DWSIMExtractive Distillation converging2020-10-06 06/10/2058401pawan1848
eSimregarding ac source2020-10-05 05/10/2062001harish
ScilabHow to activate Symbolic Maths in Scilab 6.1?2020-10-05 05/10/2068900kalyansg
eSimAbout model parameters2020-10-05 05/10/2061901manasared…
DWSIMAbsorber simulation in version 6.12020-10-04 04/10/2063301kumasuresh
eSimmay i know how to calculate the current2020-10-03 03/10/2062402harish
Affordable-Laptopdevnagari fonts2020-09-30 30/09/2061102prarthjeet
eSimunable to read analysis file2020-09-29 29/09/2074902manasared…
DWSIMCompound/component mapping2020-09-28 28/09/2062803jfontalvo
DWSIMfew options not available2020-09-26 26/09/2059201Preet
ScilabSolution for following error!!!2020-09-25 25/09/2071801OranTevin
DWSIMFormalin simulation2020-09-25 25/09/2061801DDP5091
eSimnghdl installation2020-09-24 24/09/2087805manasared…
DWSIMthe flash algorithm not appering dwsim2020-09-24 24/09/2068601Mukesh_Ka…
eSimAbout global label error2020-09-23 23/09/2060601Manasa
eSimunable to create new project2020-09-23 23/09/2061501harish
eSimIam not able to connect the wire between some components in kicad editor...but …2020-09-21 21/09/2064702Manasa
Pythonerror fixing2020-09-21 21/09/2066301jkahir143
OpenFOAMProblem before Instaling OPENFOAM2020-09-19 19/09/2068002pankajkgu…
DWSIMHow to add Sucrose compound to the Database?2020-09-18 18/09/2069601hadi.ebra…
ScilabScilab crashing on FFT2020-09-17 17/09/2074300abbas14
DWSIMproperty pacakge2020-09-16 16/09/2065811div348
Affordable-Laptopupdating GNU octave2020-09-14 14/09/2057101rucha
DWSIMflash algorithm not appering dwsim2020-09-13 13/09/20104101Mukesh_Ka…
ScilabXCOS electric simulation does not work2020-09-12 12/09/2099601mchait@uc…
eSimAdding a Library2020-09-12 12/09/2072501karanmeht…
ScilabHow To: Estimate System (transfer Function) from the Input and Output Data2020-09-09 09/09/2081601abbas14
DWSIMUnable to use 32 bit C++ DLL in DWSIM5 source code.2020-09-09 09/09/2073001TestUser96
DWSIMInstallation of DWSIM2020-09-07 07/09/2072401ujjaval_34
DWSIMOBJECT REFERENCE NOT SET TO AN INSTANCE OF AN OBJECT2020-09-07 07/09/2036501FATC25
DWSIMObject reference not set to an instance of an object???2020-09-07 07/09/2032801FATC25
DWSIMHow to sort component list (Selected compounds)?2020-09-06 06/09/2065703hadi.ebra…
DWSIMWHAT TO USE FOR EVAPORATOR2020-09-05 05/09/2075201apizzashit
DWSIMObject reference not set to an instance of an object?2020-09-05 05/09/2082902FATC25
DWSIMI have problems changing the compunds in a existing model?2020-09-02 02/09/2069802svahe
Affordable-LaptopSound card not working ??2020-09-01 01/09/20784010nilesh.hi…
Pythonunable to obtain the link of txt file and download mentioned in the videos2020-08-31 31/08/2073501kaif2k4
DWSIMADDING A COMPOUND2020-08-31 31/08/2070501apizzashit
DWSIMcentrifugal pump2020-08-29 29/08/2070201div348
DWSIMheterogeneous catalyst2020-08-28 28/08/2069701Cristiang…
Pythoncat.primes.text2020-08-27 27/08/2069501riti.gold…
Affordable-LaptopI want to buy2020-08-25 25/08/2064001gundlasai…
DWSIMParallel reaction in Heterogeneous catalytic reaction2020-08-25 25/08/2081301Ankeeta
Affordable-Laptopwifi icon missing2020-08-25 25/08/2064202rucha
ScilabNormalisation principle in X2C2020-08-24 24/08/2074801jnbera
eSimAbout eSim AC source parameter setting2020-08-23 23/08/2075201RavisakarM
eSimHalf wave rectifier2020-08-20 20/08/2068201Tamilselv…
DWSIMREGARDING INTERNSHIP FORMS.2020-08-19 19/08/2069401atomicrou…
DWSIMThe tab for binary phase envelope is not visible on reopening the dwxml file.2020-08-19 19/08/2065601Ritika303
Pythonby using %save i plot_script.py and then %run plot_script.py gives not find fil…2020-08-16 16/08/2063001artipatel
DWSIMBiomass pirolisis2020-08-16 16/08/2079904Lainet
DWSIMError in adding connections to Cape_Open Objects2020-08-15 15/08/2077203ANURAG114
eSimError( unknoen model)2020-08-15 15/08/2069801Anil92
Pythonwhat is the substitute of linspace() function?2020-08-14 14/08/2066701artipatel
eSimERC ErrrType (3)2020-08-14 14/08/2068002vipin_tiw…
Pythonsave plot using savefig() function2020-08-13 13/08/2062401artipatel
ScilabXcos files can not be opend2020-08-13 13/08/2072101Juergen
Scilabtransformation2020-08-13 13/08/2070001Fajrin
ScilabCode gen to (preferably) modern C++2020-08-13 13/08/2068600Daevor
OsdagLatest version with member designs2020-08-13 13/08/2069501knrajeshc…
ScilabScilab program has stopped working when excecuting code.2020-08-12 12/08/2083202Niels
DWSIMError in Density calculation2020-08-12 12/08/2068401varun
OpenFOAMLarge eddy simulation2020-08-12 12/08/2077901ASHUTOSH
eSimRegarding components (quartz crystal)2020-08-09 09/08/2071402Anil92
eSimNot Working on Ubuntu 18.04LTS2020-08-08 08/08/2072001srinivasy
eSimConflict between sources2020-08-08 08/08/2070401Neethu
eSimeSim ouput filtering2020-08-08 08/08/2068801Neethu
Affordable-LaptopLog in related issue due to disk space problem2020-08-04 04/08/2066101ABose
ScilabScilab is not working2020-07-31 31/07/2083201unnati
DWSIMThermodynamic property package selection2020-07-31 31/07/2078001madhur14
Affordable-LaptopInstalling hard disk in RDP thinbook2020-07-31 31/07/2065401sumedha_m…
ScilabFTP file transfert2020-07-29 29/07/2075200damo29
DWSIMUsing temperature dependent function of K in Equilibrium Reactor2020-07-27 27/07/2071301hadi.ebra…
Affordable-LaptopInstalling python3.6 on linux92020-07-27 27/07/2065601sumedha_m…
Affordable-LaptopRemotely accessing windows desktop from linux machine2020-07-25 25/07/2064501sumedha_m…
PythonAmount is debited but transaction is failed2020-07-25 25/07/2068901Andy@1108
DWSIMI have installed and configured GNU Octave but i cant able to model pc shaft2020-07-25 25/07/2071802varun
DWSIMHow to model Pc Shaft in Dwsim updated version.2020-07-24 24/07/2072002varun
Affordable-LaptopIssue in extracting vpn files to overwrite default config files2020-07-22 22/07/2074103sumedha_m…
eSimError while installing Esim2020-07-19 19/07/2075101gouravjha7
Affordable-LaptopDisk space related issue2020-07-18 18/07/2064301ABose
DWSIMNEW COMPOUND ADD2020-07-18 18/07/2078801sanjayaso…
OsdagWhen will be the all design elements like tension compression etc will release …2020-07-15 15/07/2074801vrvg11
OpenFOAMRegarding error in new expression syntax in openfoam 19122020-07-15 15/07/2075501drijazfaz…
Affordable-LaptopNo sound input2020-07-14 14/07/2092802sumedha_m…
eSimOpening schematic for a new project2020-07-14 14/07/2075701Hela123
DWSIMDWSIM installation Error2020-07-13 13/07/2095101sagar.j
eSimfoot print layout for PCB designing for 7805voltage reggulator2020-07-10 10/07/2078702Avinash@1…
DWSIMsimulation inspector2020-07-09 09/07/2074901div348
ScilabHow can I align the zeros in a two y-axes plot2020-07-09 09/07/2085100jlafouger…
eSimfoot print layout for PCB design2020-07-09 09/07/2079602Avinash@1…
eSimUnable to open schematic2020-07-09 09/07/2074903Hela123
OpenFOAMHow to update supply temperature on boundary based on the measured temperature …2020-07-03 03/07/2078801drijazfaz…
DWSIMHeterogeneous Catalytic Error tf=t02020-07-01 01/07/2079601evapagan
Affordable-LaptopBluetooth Wireless headset (Skull candy Riffle wireless) not connecting to lapt…2020-07-01 01/07/2069202saiplanner
eSimFootprint library2020-06-29 29/06/2077404Nikhibhy
eSimWhy there is a need of PWR_FLAG?2020-06-28 28/06/20901011930120
eSimUnder "Device Modeling" Tab for Kicad to Ngspice conversion, what kinds of file…2020-06-28 28/06/20782011930120
eSimEsim doesnt start - gives error message related to ZLIB_1.2.9 on Ubuntu 18.04.42020-06-27 27/06/2080602alfaraser
PythonPython certification for May 20202020-06-26 26/06/2078301devasmit
PythonPython certification2020-06-26 26/06/2073801devasmit
FOSSEE LaptopDownload mobdro 2.1.86 for PC or laptop?2020-06-26 26/06/2066401AlmiraAlma
ScilabRegarding TBC internship forms2020-06-25 25/06/2074201Nandika_A…
Pythonfailure to run ipython2020-06-23 23/06/2075601skumar484
RInstalling R and R Studio2020-06-22 22/06/2072902Ruqsalvi19
ScilabCan't display results on a plot2020-06-22 22/06/2077100termobermo
PythonJupyter Notebook issues with Python32020-06-20 20/06/2069802Dipgo
ScilabIGBT Block in Scilab/Xcos2020-06-19 19/06/2082600mat885
ScilabHow Can I choose one root between two roots in a second order polynomial on Sci…2020-06-19 19/06/2076000termobermo
FOSSEE LaptopHow to configure bios2020-06-17 17/06/2066101jhonyd1
OpenFOAMPostProcess for OpenFOAM1606+2020-06-16 16/06/2079001Tgs4HW
Pythonwill use issue certificate of Python Self Learning Course of python of may 20202020-06-15 15/06/2074801vinodcsit
PythonCertificate not issued2020-06-14 14/06/2073602hatimhuss…
DWSIMRegarding Optimization Tool2020-06-13 13/06/2076401Milan
eSimInbuild project2020-06-12 12/06/2077301Anil92
eSimInvert the signal2020-06-12 12/06/2075301bosco303
eSimeSim devices2020-06-12 12/06/2081101Avinash@1…
PythonCERTIFICATION2020-06-11 11/06/2086002VISHNUVAR…
eSimunable to install eSim 2.0 on ubuntu 20.04LTS2020-06-11 11/06/20103701Varad
eSimDevies in filter2020-06-11 11/06/2079802Avinash@1…
ScilabScilab not working with ubuntu 20.04 LTS2020-06-10 10/06/20128600ankit510
PythonRegarding course access2020-06-10 10/06/2072701Vaishnavi…
ScilabScilab memory (stacksize) issues2020-06-10 10/06/2091400vvadde@gm…
eSimunable to install eSim 2.0 on ubuntu 20.04LTL2020-06-10 10/06/2080501Varad
Pythonregarding B grade in self learning python course2020-06-09 09/06/2076601vinodcsit
PythonCertificate enquiry2020-06-09 09/06/2076201prav17225…
ScilabHow to integrate Scilab with Moodle platfrom for performing the practical2020-06-09 09/06/2079900pratik.ag…
ScilabSolution for following error2020-06-09 09/06/2096700cmrit
PythonGrading System2020-06-02 02/06/2079501saahilz
ScilabRegarding TBC2020-06-02 02/06/2075901Nandika_A…
PythonHow to register for Python self learning course?2020-06-01 01/06/20104701sobiyamou…
Scilabxcos modulo function2020-05-31 31/05/2085801btremaine
PythonRegarding python self learning course and workshop2020-05-31 31/05/2072601Shivangi_…
Scilabxcos vector division2020-05-29 29/05/2077700MAyliffe97
eSimnon conduction of bottom SCR2020-05-28 28/05/2078501suji1234++
eSimnon conduction of SCR2020-05-28 28/05/2077401suji1234++
ScilabDrawing with xcos2020-05-28 28/05/2076000Omeg12
ScilabQuestion about radius value in polarplot command2020-05-27 27/05/2081000Joao_Bomf…
FOSSEE LaptopToolbar and multimedia list2020-05-23 23/05/2067001GSMahapat…
PythonSpyder3 Update2020-05-23 23/05/2071601GSMahapat…
Affordable-Laptopbattery charging LED2020-05-23 23/05/2070401peeyushte…
ScilabModelica error2020-05-23 23/05/2085600g_haldank…
ScilabXcos gives a modelica error2020-05-23 23/05/2086100g_haldank…
FOSSEE LaptopBrightness of screen2020-05-23 23/05/2098401GSMahapat…
ScilabXcos Electrical Loads Analysis2020-05-22 22/05/2089500MAyliffe97
Affordable-LaptopBuying a new adaptor for rdp laptop2020-05-22 22/05/2073801nilesh.hi…
Scilabcreating random numbers and histogram plot in scilab2020-05-22 22/05/2079900debidatta
PythonCanopy unavailable2020-05-20 20/05/2075701devasmit
ScilabRandom No. Generator Code in ScIlab and its visualization in graph by help of c…2020-05-19 19/05/2082902debidatta
Rhow to install R and R-studio on Macbook2020-05-18 18/05/2074901eshabansa…
eSimhow to get LM 7412020-05-17 17/05/2080701kalai_123…
PythonAbout Certificates2020-05-16 16/05/2085402sritamasw…
PythonRegarding python next schedule2020-05-16 16/05/2074301Aishwarya…
ScilabScilab Textbook Companion Project2020-05-16 16/05/2087002Usaid
eSimToo few parameters2020-05-15 15/05/201439039christina…
ScilabCan't import Matlab libraries?.2020-05-14 14/05/2077201iosman001
DWSIM3-phase separator2020-05-14 14/05/20106502Danita
ScilabXCOS scope plot gridlines2020-05-13 13/05/20102501fbartra
eSimvoltage regulator2020-05-12 12/05/2088601bosco303
DWSIMPVC Component2020-05-12 12/05/2080101aravindfo
Scilabusing debug mode2020-05-12 12/05/2085802B@Ksva
Affordable-LaptopKDE plasma login2020-05-11 11/05/2073902GSMahapat…
ScilabLevenberg Marquardt2020-05-11 11/05/2079000RudiLehn
eSimBoost converter switch2020-05-11 11/05/2086801bosco303
eSimreference designator for Mosfet in subcircuit2020-05-06 06/05/2084301FireLdrago
ScilabHow to fit data and derivate fited data?2020-05-04 04/05/2081601proxquad
DWSIMError in Equilibrium Reactor2020-05-04 04/05/2082401Deep_Sino…
Scilabusing spinner uicontrol2020-05-03 03/05/2093903B@Ksva
PythonRegistration2020-05-01 01/05/2081601sknama
Pythondo we have pyhton shell on Ubuntu / linux platform2020-04-29 29/04/2073301Harshala
PythonUnable to download canopy as instructed by Instructor2020-04-29 29/04/2076701sbirthari…
RHow to find the Code files from where we can download captaincy.csv data file f…2020-04-28 28/04/2086902snehangshu
ScilabProblem with dynamic link - Ubuntu2020-04-28 28/04/2084201Galandak.J
ScilabRésolution of ODE +log2020-04-27 27/04/2079100Lolamagiq…
PythonRegarding Certificate2020-04-27 27/04/2081102Vaidehi15
DWSIMPolymer Component creator2020-04-27 27/04/2091903aravindfo
RIf I insrall latest version of R , Any problem arise in my learning??2020-04-27 27/04/2083102immangwu
PythonHow to down load Ipython in windows2020-04-26 26/04/2075801srikanths…
Affordable-LaptopIs there any software upgrade from debian 9 to debian 10 buster?2020-04-25 25/04/2074201Jothi
ScilabScilab Coding for cluster formation in scilab2020-04-25 25/04/2084201debidatta
Pythonerror in cat2020-04-23 23/04/2074801sonys.ec@…
ScilabScilab Coding for cluster analysis in molecular dynamics2020-04-19 19/04/2089400debidatta
RInstallation Package like mass, ggplot2 are not installed2020-04-19 19/04/20129802D.JOTHI
eSimCritical Path Delay2020-04-17 17/04/2082301Namra_Riaz
eSimCircuit simulation project- PCB design2020-04-16 16/04/2085901sai_srika…
ScilabXCOS Second Order System with Imaginary Poles "Answer given for denominator is …2020-04-16 16/04/2097801Ansollis
eSimproject nsme2020-04-15 15/04/2079701lochan
PythonUsing Plot Command Interactively2020-04-14 14/04/2079301gandharv1…
ScilabScilab/Xcos undefined variable2020-04-11 11/04/20128901dollety
eSimhow to save a subckt2020-04-10 10/04/2086701lochan
eSimWhere to find library of most devices2020-04-08 08/04/2084601lochan
eSimNew installation procedure2020-04-08 08/04/2090401gryphonB2
PythonAbout certificate2020-04-07 07/04/2090501Gagana
Affordable-Laptopmicrophone sound not detected2020-04-05 05/04/2076001peeyushte…
Affordable-LaptopHard disk stops working2020-04-04 04/04/2073701sethbharat
eSimproblem esim-2.0 on ubuntu 18.042020-04-02 02/04/2094202ernottep
Affordable-LaptopVideo editor that works on affordable laptop2020-03-30 30/03/2083009sethbharat
ScilabRL Transient response2020-03-30 30/03/2091501mpnmeenu
DWSIMSyntheis/production of ammonium nitrate2020-03-26 26/03/2087801p0tterhead
ScilabExecuting file in other Software (FlexPDE)2020-03-24 24/03/2087700KopeSteff
ScilabScilab Gui axes object problem.2020-03-24 24/03/2091802bediaakbu…
PythonREGISTER FOR ONLINE QUIZ2020-03-23 23/03/2088701ANSHU
ScilabPrintf Format need the output for the Exponential value2020-03-23 23/03/2082502trulyajays
Scilabconcatenate two or more string from matrix2020-03-19 19/03/2091901GianGasto…
ScilabPossibility to create a process with tags connected to an OPC server.2020-03-10 10/03/2091301Toltchok
ScilabProblem with dynamic link2020-03-05 05/03/2098400Galandak.J
eSimhow to open esim2020-03-03 03/03/2093901mozammil
OpenFOAMMesh generation using blockMesh utility2020-03-02 02/03/20105805sourav0921
eSimplot error in esim2020-03-02 02/03/2094701kanhaiya@…
ScilabVibration acceleration enveloping for bearing fault detection2020-02-29 29/02/2083800AndrewYeu…
eSimHow to build/make an IC in eSim so it can be used in schematic via place compon…2020-02-27 27/02/2090702ashutosh2…
eSimI am trying to use a transformer in a circuit but error in esim simulation2020-02-26 26/02/2091202Dhruvajit
Scilabfft on simple plot2020-02-26 26/02/2090100will20fitz
OpenPLCChange of OS2020-02-25 25/02/2076402rosh81296
DWSIMFlowsheet proposal form submitted but one of the compounds to be used was left …2020-02-24 24/02/20100901proactiv13
eSimNsSpice plot not working2020-02-20 20/02/2085901muditgarg
DWSIMAmberlyst and sulfuric acid are not available in the list, how to proceed.2020-02-18 18/02/2087101proactiv13
ScilabData fitting leastsq vs. lsqrsolve, don't success to use lsqrsolve2020-02-18 18/02/2095900phoudha
RWant to learn R Programming for Data Science?2020-02-18 18/02/2098404vikrantra…
eSimNOT ABLE TO REGISTER AND SUBMIT2020-02-16 16/02/2096101SumithKum…
PythonBASIC PYTHON PROGRAMMING REGD2020-02-14 14/02/2088201sanjay13
PythonWhat is worth and cost of Artifical Intelligence?2020-02-10 10/02/2086701vaishnavi
ScilabDownload scilab on Mac2020-02-10 10/02/2086601Lili9500
eSimLM2596 component no present2020-02-09 09/02/2085801Sumanto
PythonUpgradation of a package2020-02-09 09/02/2074101GSMahapat…
Pythoni registered for the workshop to participate in that. and yesterday2020-02-08 08/02/2080601rishabhar…
Scilabset to visible2020-02-06 06/02/2085401KLL2784
ScilabData from Figure2020-02-05 05/02/2084401Aseem
ScilabUsing Scinotes and parfor2020-02-05 05/02/2083701butiki
RHow do you fix a programming error in R?2020-02-04 04/02/2081601evonmispe…
PythonHow to combine multiple (many) .txt files into one2020-02-04 04/02/2076401tyresebro1
RWhat are some good onlne courses for R Programming?2020-02-03 03/02/2083701Karen
ScilabOpening a text file in scilab2020-02-03 03/02/2097701butiki
eSimRegarding potentiometer2020-01-30 30/01/2092101aclab
eSimAstable Multivibrator using 555 timer2020-01-30 30/01/2093302sumathi_k
eSimReagrding adding AC source2020-01-29 29/01/2096701aclab
eSimAstable mutivibrator2020-01-29 29/01/2095501aclab
Pythonregarding python self learning course2020-01-26 26/01/2081401disha_kha…
Affordable-LaptopFIles and folders backup2020-01-19 19/01/2075301sethbharat
Scilab ToolboxFOSSEE Optimization Toolbox: Least squares problem call to fmincon does not wor…2020-01-18 18/01/2083101brant
DWSIMReaction manager in Mac os2020-01-18 18/01/2095701suratiapr…
ScilabCheck if x or y are eigenvectors of matrix A.2020-01-16 16/01/2086801praveenpk
PythonThe error message viewed at the beginning of Spyder32020-01-15 15/01/2085301GSMahapat…
Scilab ToolboxFOSSEE Optimization Toolbox: Least squares problem call to fmincon does not work2020-01-14 14/01/2080200brant
Scilab ToolboxI am having problems with the below code. It is a2020-01-14 14/01/2073000brant
ScilabPlease help me in solving the problem in scilab2020-01-14 14/01/2085101praveenpk
ScilabCould anyone please help me in solving the following problem2020-01-14 14/01/2082801praveenpk
eSimInstallation Error in NgSpice2020-01-14 14/01/2088201vishvendr…
ScilabUsing function datafit2020-01-14 14/01/2091901osantana
PythonError message in Spyder32020-01-13 13/01/2073101GSMahapat…
eSimError in grounding the circuit2020-01-12 12/01/2081801Aravinth_…
eSimERROR IN kicadtongspice convertor2020-01-12 12/01/2089201Aravinth_…
ScilabCan't import Matlab libraries2020-01-11 11/01/2085902vramirez
ScilabEquivalent function or procedure to Matlab's analoginput('winsound')2020-01-08 08/01/2089101osantana
FOSSEE LaptopAdministrator(root) password is not working2020-01-08 08/01/2074901mahesh464
ScilabHow else can I optimization this code?2020-01-08 08/01/2085101SwissMan
PythonEnrolment for course2019-12-24 24/12/1985701anujkyadav
PythonWhen will I be able to view the results (scores) of Advkvpython2019 Phase II Qu…2019-12-18 18/12/1979901vimalatho…
DWSIMError while opening "Open Python Script Editor"2019-12-06 06/12/1995001drmankarj…
Scilab ToolboxIt came from the same source code as Matlab2019-12-05 05/12/1983601JubinMenez
ScilabNeed help this matlab function into Scilab [fitobject,gof,output] = fit(x,y,fit…2019-12-05 05/12/1995101waqas.ahm…
DWSIMAutomation of compound separator2019-12-04 04/12/1993401drmankarj…
ScilabCatching data with pc audio card using Scilab and (or) Xcos2019-12-03 03/12/1996501osantana
eSimError in kicad to ngspice.2019-12-02 02/12/1998801stevenogg
PythonHow to download certificate after completion of the self learning python progra…2019-11-29 29/11/19105401Sujithcse
eSimhow to do AC analysis in eSim2019-11-27 27/11/19101605prakhar
PythonRestricted the input up to 8character2019-11-24 24/11/1979701kvandrews…
PythonKvadvance Python course2019-11-23 23/11/1985711kvandrews…
OpenFOAMConvergence problem in steady state simulation of centrifugal fan in openfoam2019-11-22 22/11/19165901rohanmaja…
OpenFOAMWhere to add new field while using dsmcfoam?2019-11-22 22/11/19116902kevin
ScilabInformation about .sci file2019-11-18 18/11/1993501Keerthi_v…
PythonPrerequisite Quiz could not attempted due to technical problem in kv advance co…2019-11-14 14/11/1983401jitinkohli
RIs it possible to index the data using two variables (while using indexing and …2019-11-09 09/11/1991801MandarKul…
OsdagDuring instalation found problem with miniconda and PyQt5 module2019-11-07 07/11/1986201jureko
ScilabIs it possible to input values from Excel directly into scilab?2019-11-03 03/11/19107702UltraEvil…
eSimUnable to add library2019-11-02 02/11/1999801arpitg
eSimMapping components footprints2019-11-02 02/11/19106003Aman_M
Affordable-LaptopProblem with the use of earphones2019-10-31 31/10/1997201Vikram
ScilabCan we give a link to Xcos examples from xcos.fossee.in?2019-10-30 30/10/1998001kannan
ScilabHow can I select variables in the Xcos SUPER_f-block mask-editor?2019-10-29 29/10/19161902louis.sch…
PythonWhen and where will the quiz scores and answer sheets shown...2019-10-26 26/10/19115601Ambily_Kr…
PythonWhen will I be able to view the results (scores) of kvpython2019 Phase I Quiz …2019-10-23 23/10/1986201vimalatho…
PythonView score of Python quiz regarding2019-10-22 22/10/1985501Benzi_R
PythonRegarding the Basics of Python Programming -KV August 20192019-10-20 20/10/1987701kvandrews…
Affordable-LaptopHDMI not working properly2019-10-17 17/10/1991403sethbharat
Scilabhow do I adjust the x y intercept?2019-10-15 15/10/1994001bonads
ScilabIs there any mathematical package available in SCILAB for Exponential integral …2019-10-14 14/10/1999301shuvenduj…
Scilab-ArduinoWhat do you guys think of SciLab to Ardunio?2019-10-14 14/10/19100600Redington
DWSIMUsing a custom compound2019-10-10 10/10/19109602Envoy467
Scilab-ArduinoWhat i am wanting to do is simple but I just2019-10-09 09/10/1998000BintuGomes
Scilabhow to get quad encoder in scilab2019-10-05 05/10/1998901sashanksa…
Scilabplot doesn't work2019-09-30 30/09/19108301toto1
PythonBasic of python programming kv August 20192019-09-22 22/09/19109701nishantra…
eSimConnectors for Astable Multivibrator2019-09-21 21/09/1996001Ravikiran…
ScilabSliding Window2019-09-21 21/09/1999102hoon07
eSimNot able to run this software. Tried installing it many times. Could you please…2019-09-21 21/09/19102101shafaz
eSimFootprint window open but last column will not be displayed2019-09-21 21/09/1988402revansidh
eSimfoot prints appropriate for my selected components2019-09-21 21/09/1995701venky4004
eSimREGARDING OUTPUT2019-09-21 21/09/1992203akhilesh
eSimDo the participants of the workshop need to upload the results2019-09-21 21/09/1988001janibasha
eSimAssignment for getting certificate of esim workshop2019-09-21 21/09/1993801gaurav.na…
eSimDifferent between eSim_NPN and BC5472019-09-21 21/09/1993502khinphyot…
eSimError in python plotting2019-09-21 21/09/1995802aparna.ma…
eSimUnable to shows kicad to ngspice successfully conversion message window2019-09-21 21/09/1987501revansidh
eSimerror message occured while simulation2019-09-21 21/09/1992801dhara.pra…
eSimUnable to get DC analysis2019-09-21 21/09/1991101pramod.s1…
eSimError Message while simulation2019-09-21 21/09/1993202sdshabbie…
eSimThe project does not contain any Kicad netlist file for conversion.2019-09-21 21/09/1993301Lakshmi@1…
eSimError occured after simulation2019-09-21 21/09/1987401drbvvsati…
eSimhow to search a specific components for a typical circuit design2019-09-21 21/09/1988601potdar.bi…
eSimesim application to electrical engineering2019-09-21 21/09/1995002g.srinivas
eSimpython version2019-09-21 21/09/1987101dae1948
eSimeSim installation issues2019-09-20 20/09/19100101sebin
eSimcVpcb takes long time to open or it keeps loading2019-09-20 20/09/1984801sebin
ScilabPlot a single vector.2019-09-20 20/09/1989901Ironmaniac
eSimElectrical Rule Check2019-09-20 20/09/19170602Devibhaga…
Affordable-LaptopUpdate not installed - not signed?2019-09-20 20/09/19919018gaitonde
eSimi am not able to connect wire to components2019-09-19 19/09/1989401BUNTYJATT
Affordable-LaptopHow to disable KDE wallet manager2019-09-19 19/09/1995801sethbharat
eSimUnable to create new project file2019-09-18 18/09/19107401Zapper20
eSimUnable to perform simulation for astable multivibrator2019-09-18 18/09/1990001Mrunalini
DWSIMCAPE-OPEN Unit Operations2019-09-17 17/09/19141102phani4cts
DWSIMHow to add a Component Splitter2019-09-17 17/09/19115601phani4cts
eSimCvPcb error, May be our institute proxy blocking the CvPCb2019-09-17 17/09/1989501janibasha
PythonHow to complete a module in an enrolled course.2019-09-17 17/09/1984601manojkv
Pythonipython_Error2019-09-16 16/09/19100901indrajit6…
Affordable-LaptopForgot laptop password2019-09-16 16/09/1983702deepakgup…
eSimError in kicad to ngspice2019-09-15 15/09/1992701ankit@21
eSimunable to perform simulation2019-09-14 14/09/1989401janibasha
OpenFOAMError: Pcorr goes to nan. (Diverging)2019-09-12 12/09/1998503Rohan_Sri…
Affordable-LaptopNot able to setup wifi possibly because sudo does not work2019-09-12 12/09/1987802sethbharat
Pythonkv pyhthon 20192019-09-12 12/09/1991501ruchijain
PythonREGARDING STUDY MATERIAL IN PENDRIVES FOR Basics Of Python Programming - KV Aug…2019-09-12 12/09/1988001ruchijain
ScilabRaspberry Pi with Scilab2019-09-12 12/09/19180402BR_Bruno
eSimnew spoken tutorials on Astable multivibrator are not appearing2019-09-11 11/09/1992002janibasha
Affordable-LaptopBengali and Sanskrit transliteration in Affordable Laptop2019-09-10 10/09/1987602Dipgo
Pythonkvpython19 course2019-09-10 10/09/1990801m_rohilla
eSimhow to select IC5552019-09-09 09/09/1987802revansidh
PythonPROBLEM WITH QUIZ2019-09-08 08/09/1986001agrorahul
eSimTo Draw Overlapped Track on PCB2019-09-06 06/09/1983701sunilshah
eSimUrgent: Problem Facing during installation of esim in mint-18 linux OS2019-09-05 05/09/1988503pinkeshpa…
eSimhow to get the transfer characters of JFET or MOSFET2019-09-05 05/09/1986502anupamash…
ScilabLegends for Polar Plot2019-09-04 04/09/19124702SharathDi…
ScilabTextbook companion project review2019-09-04 04/09/1999401Keerthi_v…
eSimfacing a problem to install a esim setup2019-08-31 31/08/1990801ankit@21
eSimSoftware crash2019-08-31 31/08/1996301Zapper20
OpenFOAMHelp me choose MFEM vs deal_ii2019-08-29 29/08/19101001jeff12
ScilabLoad sqlite Textfile into Matlab.2019-08-28 28/08/19101001TheGlenli…
eSimErrors descriptions and remedies2019-08-26 26/08/1990801rupeshdub…
eSimSource details not appearing2019-08-25 25/08/19100501rupeshdub…
Affordable-LaptopChromecast on Linux2019-08-23 23/08/1985701dadas
PythonAnimated social contagion graph2019-08-19 19/08/1998403terry131
Affordable-LaptopRegarding Linux synaptic package manager2019-08-18 18/08/1991601sebin
eSimhow to find input characteristics of BJT CE config2019-08-16 16/08/19125104anupamash…
OpenFOAMChoosing appropriate boundary conditions for turbulent quantities2019-08-13 13/08/1999201razon1312…
eSimKi- Ng conversion is not happening and the plot files .V files are not availabl…2019-08-12 12/08/1989201anupamash…
eSimInput output characteristics of Common emitter configuration2019-08-12 12/08/1994601anupamash…
FOSSEE LaptopFossee Laptop2019-08-08 08/08/1985700bbgy4
Scilabproblem loading a .sav2019-08-06 06/08/1999101ersoule
eSimwhile converting kicad to ngspice, it is ap[pearing as "Your schematic contain …2019-08-06 06/08/1997601deviM
eSimIoT simulation2019-08-04 04/08/1992601anoop.eg
Scilabfailure of some of the simulations of "demo" in XCOS2019-08-03 03/08/19147601shweta
Affordable-LaptopIs playing PC game on affordable laptop riskyyy ?????2019-08-02 02/08/1990802leoly111
eSimwhen i submit the hardware assignment it will not attach my file of zip 1182.ra…2019-08-02 02/08/1994001revansidh
eSimit gives python error also while selecting device modeling parameter led libra…2019-08-02 02/08/1991601revansidh
eSimWhen we will start to registration of other faculty for main workshop which wil…2019-08-02 02/08/19105301revansidh
eSimIs it necessary to submit astable multivibrator Gerber file.2019-08-02 02/08/1994101revansidh
eSimWhen assign simulation parameter in kicad to spice conversion and when click on…2019-08-02 02/08/1994301revansidh
eSimHow to submit the coordinator assignment using hardware kit for esim2019-07-31 31/07/19102802deviM
eSimHow to submit the assignment for esim2019-07-31 31/07/1995501deviM
Affordable-LaptopRecovry from hung computer2019-07-30 30/07/1990001sethbharat
eSimWhat are the steps design pcb for multilayer?2019-07-29 29/07/1990101revansidh
eSimHow to design pcb for multilayer?2019-07-29 29/07/1994001revansidh
eSimError while opening Python plotting editor, so unable to simulate2019-07-29 29/07/19125701bncetrcc1…
DWSIMchemicals and thermodynamic2019-07-28 28/07/19119701@azharmohd
Affordable-Laptopdata processing2019-07-28 28/07/1981201prarthjeet
eSimRegarding project files present in virtual machine2019-07-27 27/07/1994101sebin
eSimerror , not able to see source details2019-07-27 27/07/1997501sesidhar
eSimconvert kicad to ngspice2019-07-27 27/07/1994501vbhujade
eSimnot proper output2019-07-27 27/07/1997301shaista.k…
eSimError in opening existing project2019-07-27 27/07/1990001Sufi8118
eSimError which doesnot open my project file.2019-07-27 27/07/1993701indrajit1…
eSimki-Ng convertion not happening2019-07-27 27/07/1993101chalapath…
eSimregarding : Error2019-07-27 27/07/1995501bvanand
eSimdevice modelling tab empty2019-07-27 27/07/1997101probeer.s…
eSimregrading package2019-07-27 27/07/1988401chjayaram
eSimpython plot ouput missing2019-07-27 27/07/1993901shaista.k…
eSimsimulation output is not getting2019-07-27 27/07/1993101anoop.eg
eSimsimulation can't complete2019-07-27 27/07/1992001travindra
eSimComponent values dialog box will not get open2019-07-27 27/07/1986901conquista…
eSimhow to solve error 32019-07-27 27/07/1992702anoop.eg
eSimRegarding selection of footprints2019-07-27 27/07/1989901sebin
eSimIn kicadtongspice conversion, source details are not appearing2019-07-27 27/07/1996001janibasha
eSimRegarding Astable Vibrator output2019-07-27 27/07/1987401conquista…
eSimDuring Simulation the below error is showing2019-07-27 27/07/1990301manoj1313
eSimerror while simmulation2019-07-27 27/07/1987801sesidhar
eSimsir i am unable to simulate please help, getting these errors2019-07-27 27/07/1991101sesidhar
eSimunable to simulate the circuit output2019-07-27 27/07/1985202madhurak
eSimIssue with viewing OUT22019-07-27 27/07/1988201sebin
eSimerror(5) Power Flag2019-07-27 27/07/1996301gopikrish…
eSimafter placing the power flag2019-07-27 27/07/1986501travindra
eSimMultiple item C1(unit1)2019-07-27 27/07/1981301manishara…
eSimeSim wkhp 2019 task22019-07-27 27/07/1988401probeer.s…
eSimConflict problem between pin security.2019-07-27 27/07/1999901revansidh
eSimerror type2 information2019-07-27 27/07/1989101gubbanave…
eSimfor ERC error2019-07-27 27/07/1999202travindra
eSimSir what is the assignment need to be submitted in esim after making the connec…2019-07-27 27/07/1993701deviM
eSimWire connection regd2019-07-27 27/07/1986101Devibhaga…
eSimConnection of Global label connection2019-07-27 27/07/1990501pushpbit
eSimcomponent placement2019-07-27 27/07/1987601rajusastra
eSimCircuit regd2019-07-27 27/07/1990701Devibhaga…
eSimPlease explain what to do with the hardware I have received2019-07-27 27/07/1983101deviM
eSimPLEASE EXPLAIN ABOUT THE ASSIGNMENT TITLE I NEED TO COMPLETE TODAY2019-07-27 27/07/1988201deviM
Pythonenrollment for next python course2019-07-23 23/07/1983501rittick
FOSSEE LaptopHelp to restore external USB hard disk2019-07-19 19/07/1980900sethbharat
eSimSchematic contains unknown model2019-07-16 16/07/1991201manishara…
eSimPin Not connected2019-07-15 15/07/1991201manish.sh…
eSimopenprojectfile() takes only a single file name2019-07-15 15/07/1995901manishara…
OpenFOAMMultiple AMI, decreasing time step.2019-07-15 15/07/19111701sg_03
eSimeSim_devices not showing at the time of schematic...2019-07-14 14/07/1993211sharadjag…
eSimIssue in eSim Project2019-07-14 14/07/1995101nwyawahare
eSimlibrary for lm555n in CvPcb window2019-07-13 13/07/1992301janibasha
eSimProject Submission2019-07-12 12/07/1988902samkarthik
eSimFoot Print Mapping2019-07-12 12/07/1990401samkarthik
eSimNot able to select any footprint2019-07-12 12/07/1993901vishalppa…
eSimSetting parameters for PCB2019-07-12 12/07/1990201vishalppa…
eSimError while Simulating2019-07-12 12/07/1990101samkarthik
eSimafter reading netlist footprint error occur2019-07-12 12/07/1989101ashishrag…
eSimschematic of the assignment eSIM not run(RC code:1263)2019-07-12 12/07/1987501subha983@
eSimregarding connection of components RC10632019-07-12 12/07/1987401shahaji18…
eSimCouldn't able to find out the footprint for v2, v32019-07-12 12/07/1991701chalapath…
eSimError while doing schematic Creation2019-07-11 11/07/1991101samkarthik
eSimRegarding CvPCB2019-07-11 11/07/1987401shaista.k…
eSimerror while opening phython plotting editor2019-07-11 11/07/1996601ashishrag…
eSimPayment process for eSim coordinators workshop 27 july 192019-07-10 10/07/1989202rbbhamare
eSimCvPCB does not read Footprints2019-07-10 10/07/1989601madhurak
eSim1182 uploaded successfully for footprint of lm741 i follow the same with 7805 i…2019-07-10 10/07/1989301revansidh
eSimProject File Name2019-07-10 10/07/1992101sanjay.bh…
DWSIM.ERROR IN POWER CALC OF PUMP2019-07-09 09/07/1997201kristandon
eSimWhen convert kicad to Ng it shows a window of unknown model lm_7412019-07-09 09/07/1990901revansidh
eSimWhile checking electrical rules it gives error at input and output label where …2019-07-09 09/07/1997402revansidh
eSimLm741 this component is not appeared under eSim_Devices so what is a solution …2019-07-08 08/07/1998501revansidh
eSimafter generation of gerber file then save it and when i type ctr+alt+T that win…2019-07-08 08/07/1990101revansidh
eSimeSim Coordinator Workshop Assignment Submission2019-07-08 08/07/1990302rbbhamare
eSimRegarding eSim Coordinator Workshop Assignment Submission2019-07-07 07/07/1988701rbbhamare
eSimProblem in Selection of Lm_7412019-07-07 07/07/1990501pushpbit
eSimMapping components with footprints and also onwords all video is not playing …2019-07-06 06/07/1990601revansidh
eSimMapping components with footprints this video is not played in spoken tutorial …2019-07-06 06/07/1988401revansidh
eSimRegarding Uploading of Assignment-RC No-14842019-07-06 06/07/1989701navjot.16…
eSimLM_741 is not available in eSim_Subckt filter2019-07-05 05/07/1993402bvsjaipur
eSimError During Simulation of Circuit in eSim2019-07-04 04/07/1993701navjot.16…
eSimError During Simulation of Circuit2019-07-04 04/07/1988501navjot.16…
Affordable-LaptopIssues with Wi-Fi2019-07-04 04/07/1986903prarthjeet
ScilabImplementasi ImageDataStore funtion In Scilab2019-07-04 04/07/19100701ariev_arc…
eSimInstallation of esim(Python Package issue)2019-07-03 03/07/1990901Shmscetam…
Scilabparticipants are not received online certificate2019-07-03 03/07/1999701gopal@1972
Affordable-LaptopCould you help us to get affordable Laptops to our college RC ID:14722019-07-03 03/07/1989302gopal@1972
Affordable-LaptopMy RC NO.1472, We haven't received any LAPTOPS from IIT-B2019-07-03 03/07/1984501gopal@1972
eSimMy RC NO.14722019-07-03 03/07/1996801gopal@1972
eSimAssignment is tough and after watching spoken tutorial morethan three times no…2019-07-02 02/07/19107303bvsjaipur
eSimI hope the Assignment 2 is attached instead of assignment 12019-07-02 02/07/19106303gopal@1972
Affordable-LaptopOperating System2019-07-01 01/07/1982901SriVidhya
DWSIMNot responding error2019-06-29 29/06/19107604Nimisha
OpenFOAMInlet Velocity2019-06-28 28/06/19109502moghimi49…
ScilabXCOS MASKED SUPERBLOCK EDITOR2019-06-27 27/06/19105802danielhar…
DWSIMError while accessing compounds2019-06-26 26/06/19100701Paritosh
ScilabLeft shift operaion and combining 3char to form an int value2019-06-26 26/06/19107601Likhitha_…
Pythonunable to download certificate for may course2019-06-25 25/06/1986901mbhush303
Affordable-LaptopI want to transfer my data from windows pc to debian laptop2019-06-24 24/06/1986202saiplanner
ScilabpyImport -scipython2019-06-20 20/06/19109501sneha
ScilabProblems with Image on GUI2019-06-18 18/06/19102301Josiane
ScilabRead several csv files2019-06-18 18/06/19100401AnimalA
ScilabPerformance between Windows and Linux2019-06-14 14/06/19116501pbies
eSiminstallation2019-06-12 12/06/1997001bvnr_s
Affordable-LaptopAC adapter for the affordable laptop2019-06-12 12/06/19916010sethbharat
ScilabScilab to xcos and xcos to scilab communication2019-06-12 12/06/19114301GirijaB
ScilabDependency file in scilab2019-06-10 10/06/1996601Keerthi_v…
ScilabPlotting problem2019-06-07 07/06/19102001minio373
ScilabUsing Clear Command in Examples with Dependency Code(s) - TBC Review2019-06-04 04/06/1998902Parmanand…
eSimSchematic contain unknown model "inv2x"2019-06-01 01/06/19102402Kunal
PythonPython enrollment2019-06-01 01/06/1989101Prikshit
DWSIMR.O desalination2019-05-17 17/05/19108601kavin
DWSIMCustom modeler2019-05-17 17/05/19109001kavin
eSimWhen trying to convert kicad to ngspice it is showing "your schematic contain u…2019-05-08 08/05/19108001bhanuprak…
ScilabCandycrush code2019-05-07 07/05/19136001luisdri
ScilabScilab/Matlab Problem.2019-05-05 05/05/19121301cassar
ScilabRegarding Symbolic Tool Box2019-05-05 05/05/19101401piratlasr…
ScilabRegarding TBC on Scilab2019-05-04 04/05/19115607trulyajays
Scilabhow to work on scilab2019-05-04 04/05/19107902Venkatara…
ScilabHow to use scilab2019-05-04 04/05/19105601Venkatara…
Scilabregarding data sets2019-05-04 04/05/19103502gusha
Scilabscilab doubt2019-05-04 04/05/19105902ravi2544
ScilabScilab codes and its results will be allowed to quote in publications, if i am …2019-05-04 04/05/19103602Sathya
Scilabhalf wave rectifier model execution problem2019-05-03 03/05/19143001venkatana…
DWSIMclassic extractive distillation with 2 simple columns,  with water, ethanol and…2019-04-29 29/04/19126901SvenderMa…
DWSIMNot able to download the codes for Textbook Companion Project2019-04-24 24/04/19105701tangli666
Scilabusing cameras with Scilab and IPCV2019-04-10 10/04/19119501egge_d
PythonHow to keep the proxy setup active till the end of execution2019-04-10 10/04/1993601tutu10
PythonWhere to submit screening task2019-03-31 31/03/19106701Sajag
Pythonunable to attempt quiz62019-03-31 31/03/1996101Amrutha
ScilabApplying Filters to signals2019-03-28 28/03/19150701lgunseor
DWSIMReaction manager2019-03-26 26/03/19142001Aybiee
FOSSEE Laptophow to uninstall debian and install windows 102019-03-26 26/03/1990800monojgoya…
Affordable-LaptopThe 1 Tb hard disk is automatically de-mounting2019-03-25 25/03/1997101saiplanner
Affordable-LaptopUnable to access update files for off-line update2019-03-22 22/03/1999801sethbharat
ScilabMODULUS in XCOS2019-03-20 20/03/19145204raghu7862
PythonPython fossee fellowship reexam2019-03-19 19/03/19105901rushic24
eSimunable to use esim_pspice library components2019-03-18 18/03/19103501Malli
OpenModelicaNot installed on macos2019-03-16 16/03/19100501amol_gp
Affordable-LaptopI want to install Linux into my hard disk instead of Flash Drive, How can I do …2019-03-13 13/03/1996301Kishan
DWSIMequillibrium reactor2019-03-12 12/03/19144902madhur14
eSimAbout changing the course2019-03-09 09/03/19106902angadiroh…
eSimabsence of component in library2019-03-08 08/03/19108701shivanshu
PythonSelf Learning Course March/April 20192019-03-06 06/03/19103302meeraj
ScilabHelp a newbie; How to implement an equation?2019-03-05 05/03/19108501Throwaway
eSimIC subcircuit cannot found2019-03-04 04/03/19107401angadiroh…
Osdag2D views- report creation2019-03-04 04/03/19117201nandanam1
PythonSelf Workshop2019-03-02 02/03/19100403shweta_k
ScilabBuild a Band-pass Butterworth Filter2019-02-27 27/02/19118401UnknowStu…
ScilabORIGINALITY OF EXAMPLES2019-02-25 25/02/19112302prankurti…
eSimError while opening python plotting Editor. Please look at console for details2019-02-24 24/02/19146201KatakamBh…
Affordable-LaptopWPS Office installation in Thinbook 13102019-02-22 22/02/19108503mahesh464
ScilabCreate Xcos block with string parameter2019-02-14 14/02/19121001dagomar
ScilabHow to plot with 2 vector as horizontal axis.2019-02-13 13/02/19109602yanfanbl
RWhat after registraion?2019-02-13 13/02/19130602dishanisen
eSimCan not run the eSim software in Windows.2019-02-07 07/02/19118001ANNESYA_B…
OpenFOAMNo creation of processed files even after running.2019-02-06 06/02/19107901Rohan_Sri…
Affordable-LaptopNot able to hear sound2019-02-02 02/02/191405010sethbharat
eSimCan you provide the link for eSim installation for Windows 8?2019-02-01 01/02/19111501Subhashini
ScilabExample Naming Convention2019-01-30 30/01/19119102Parmanand…
RBook proposal category2019-01-30 30/01/19125201MBhubanand
eSimHow to change the working directory of eSim?2019-01-30 30/01/19119902Subhashini
ScilabQuery regarding XCOS Super_f block2019-01-24 24/01/19129701vamsi7862
Scilabpolar graph : invisible axis2019-01-17 17/01/19107701Bilaz38
eSimSISO Experiment2019-01-15 15/01/19116301priyachet…
Affordable-LaptopAugmenting memory2019-01-15 15/01/19102001Manoj
eSimError in simulating the circuit12019-01-14 14/01/19111601priyachet…
eSimError in simulating the circuit2019-01-11 11/01/19123401priyachet…
DWSIMIssues related to DWSIM in mac2019-01-08 08/01/19119801viggi08
eSimWhere is eSim windows installer available?2019-01-08 08/01/1990201SJith
eSimsimulation error2019-01-07 07/01/19130405priyachet…
Affordable-LaptopReminna Remote connection in Debian Thinbook and RDP connection from Windows PC2019-01-05 05/01/19152102mahesh464
ScilabAbout Xcos project2019-01-02 02/01/19120801CBChoudha…
ScilabBook proposal2019-01-02 02/01/19115701CBChoudha…
Scilab'syms' function2018-12-29 29/12/18147501Akhtar
PythonQuiz-6 -- Unable to continue2018-12-28 28/12/18109301Bhaghyesh
PythonPractice data structures_exercise_question_82018-12-26 26/12/18106101Bhaghyesh
DWSIMupload user define compound2018-12-23 23/12/18113501mehul09
ScilabEquivalent function for heaviside in scilab2018-12-20 20/12/18262701Akhtar
DWSIMDWSIM Wastewater treatment process2018-12-20 20/12/18141301Shubhashi…
ScilabI sent a book proposal some days before . I made mistakes in proposal .I want t…2018-12-18 18/12/18117101CBChoudha…
Affordable-Laptopnetwork connectivity2018-12-18 18/12/18412411rucha
Scilab Toolboximage processing functions are not responding2018-12-18 18/12/18127402Yogin
OpenFOAMChoosing exact boundary conditions2018-12-18 18/12/18135301razon1312…
ScilabGet state vectors of state space block during simulation2018-12-17 17/12/18112403alexandru
OpenFOAMRegarding Proposal2018-12-17 17/12/18112201chetantho…
OpenFOAMQuery regarding heat flux boundary condition in OpenFOAM2018-12-16 16/12/18111001gikkutom
Affordable-LaptopUnable to connect laptop with smart tv2018-12-15 15/12/18114703SadasivamM
Affordable-LaptopMalfunctioning of the laptop2018-12-15 15/12/1899601Priya_siv…
OpenFOAMHeat flux boundary condition in OpenFOAM2018-12-15 15/12/18279101gikkutom
Affordable-Laptopkdenlive app image was working fine - now freeze in timeline, position marker a…2018-12-10 10/12/18109001ranipv
eSimReverse Characteristics of Diode2018-12-08 08/12/18122201Gloria
eSimCurrent source in eSim2018-12-08 08/12/18119301Gloria
Affordable-LaptopVLC MEDIA PLAYER2018-12-07 07/12/1899601GSMahapat…
Affordable-LaptopUninstallation2018-12-07 07/12/18100112GSMahapat…
eSimInstallation of eSim software2018-12-06 06/12/18123903SAI14
Affordable-Laptopmissing qt and wxt terminals from gnuplot 5.2.52018-12-06 06/12/18155706ranipv
DWSIMProblem with "Valve"2018-12-05 05/12/18130703ferbg
ScilabProcessor in Loop, Hardware in Loop etc.2018-12-04 04/12/18159901dalaylama
DWSIMfind the enthalpy in python script2018-12-04 04/12/18122801mehul09
Affordable-LaptopIssue with offline update 32018-11-28 28/11/18105601manojkuma…
eSimSoftware download2018-11-28 28/11/18122701sweety
Affordable-LaptopError occured while updating the System2018-11-27 27/11/18110701JitendraB…
Affordable-LaptopEven after installing updates 2 and 3 the issue persist2018-11-26 26/11/18110801Jothi
Affordable-LaptopISO file of OS(Debian)2018-11-26 26/11/18115002JitendraB…
eSimUnable to find esim installer2018-11-26 26/11/18110201Prakash14
Affordable-LaptopDisk space (won't let me post unless title is longer than 12 characters, hence …2018-11-25 25/11/18122701Manoj
Affordable-LaptopLED above F3 key2018-11-24 24/11/18111302Manoj
ScilabHow to use the oscilloscope?2018-11-23 23/11/18123701Batmano
DWSIMRigourous Distillation column error with image file2018-11-21 21/11/18139301DoshiVarun
Affordable-LaptopNo LAN Port to the device. How can I use LAN wired connections to this Machine?…2018-11-21 21/11/18105203balupp
Affordable-Laptopunable todetect sd card2018-11-15 15/11/18101301peeyushte…
Affordable-LaptopProblem with Voice Record2018-11-15 15/11/18111801laxman-cs
Affordable-LaptopRegarding Devanagari Typing2018-11-15 15/11/18104811Vikram
Affordable-LaptopProblem with WiFi connection2018-11-15 15/11/18119202Vikram
Affordable-LaptopWEBCAM app: Videos inaccessible2018-11-15 15/11/18104002sumedha_m…
Affordable-LaptopInaccessible Hard disk2018-11-15 15/11/1898001sumedha_m…
Affordable-LaptopBattery Drainage2018-11-12 12/11/1896201Kishan
OpenFOAMBoundary condition at inlet2018-11-11 11/11/18133702sourav0921
Affordable-LaptopTo update Windows 10 software version in Linux OS (Thinbook)2018-11-04 04/11/18126602christoph…
Affordable-LaptopCan not play vedio2018-11-03 03/11/18103211Dr_kalpana
DWSIMerror in a kinetic reaction2018-11-01 01/11/18131301mehul09
Scilabwave synthesis analysis using laplace transform2018-10-31 31/10/18130901priyadars…
Affordable-LaptopAffordable laptop with Hard disk2018-10-31 31/10/18128513dadas
Affordable-LaptopUBS Port not functioning2018-10-31 31/10/18109111sharma49
Affordable-LaptopNo stereo sound2018-10-31 31/10/18101512b4balu
ScilabMoving average2018-10-26 26/10/18258602Noiser1234
Affordable-LaptopSound not working!2018-10-26 26/10/18102611mohamed.ld
Scilabcsim message "Excessive work done on this call"2018-10-26 26/10/18158001felipetoz…
ScilabData import from clipboard2018-10-25 25/10/184673102Noiser1234
ScilabString Handling in Scilab Xcos V5.5.22018-10-17 17/10/18128301Poornacha…
ScilabDifferent tasks PLEASE HELP2018-10-14 14/10/18514401joosep
eSimpcbnew layout straight to ngspice?2018-10-08 08/10/18123401coupsdeba…
DWSIMerror in LLE ternary graph utility2018-10-08 08/10/18157502mehul09
Scilabscetoexe not working2018-10-05 05/10/18141301anupam
eSimNot able to open examples in esim, its showing " The system cannot find the spe…2018-10-01 01/10/18119801nsnairtvm
eSimUnable to proceed with Setup program2018-09-30 30/09/18107801ksmk31
OpenFOAMFoam::error::printStack(Foam::Ostream&) at ??:?2018-09-27 27/09/18362302razon1312…
OpenFOAMContinuity error cannot be removed by adjusting the outflow.2018-09-19 19/09/18320101razon1312…
ScilabVoronoi Diagrams2018-09-17 17/09/18141902ritu_2306
DWSIMdoubt regarding reaction furnace and condenser2018-09-15 15/09/18124001rajat
Pythonlinspace is not found . i have window 32 bit. plz help me out .2018-09-15 15/09/18104801sushma
ScilabWhat is algebraic Loop? When it Occurs in Xcos? How to Overcome it?2018-08-31 31/08/18339701arundsona…
ScilabRegarding Scilab commands xcorr2018-08-29 29/08/18118901Ajay
DWSIMError in stichiometry2018-08-24 24/08/18127603drmankarj…
DWSIMSimulation of process model for n number of data points or observations2018-08-24 24/08/18120901drmankarj…
DWSIMDevelopment of graphical user interface in Excel2018-08-24 24/08/18117701drmankarj…
eSimwhile opening the schematic window this error occur?2018-08-13 13/08/18124201durairajm…
ScilabSet logarithmic scale in Sgrayplot2018-08-02 02/08/18127301Matias
DWSIMabout flowsheet submission2018-07-29 29/07/18147701mehul09
PythonThe circulate.zip error2018-07-27 27/07/18111201prateekvy…
FOSSEE LaptopFOSSEE OS linke is down2018-07-23 23/07/18115301mrf3
DWSIMabout a scrubber design2018-07-22 22/07/18164501mehul09
DWSIMPipe unit operation2018-07-14 14/07/18140401Rick63
OpenFOAMConvergence in Open Foam Simulation2018-07-13 13/07/18124201ben
DWSIMAbout internship's forms2018-07-05 05/07/18129411mehul09
OpenFOAMSalome bentpipe to OpenFOAM2018-07-02 02/07/18127801Happys5
SBHSWhat is Error while running the Python based "run" file ?2018-06-29 29/06/18119801Moh005
PythonRegarding quiz 62018-06-27 27/06/18114401Akash_1998
Scilaba general forum question2018-06-25 25/06/18158801maxcy
Scilabfunction return2018-06-25 25/06/18123405maxcy
ScilabSciLab 6.0.1 and Symbolic Toolbox2018-06-25 25/06/18216802kamienna.…
DWSIMSimulating a condensor2018-06-24 24/06/18137001Aftab
Scilabtutorial 15 not working2018-06-23 23/06/18124300maxcy
ScilabDouble integration by Scilab2018-06-21 21/06/18182301gu0813421…
DWSIMPython Documentation For DWSIM2018-06-21 21/06/18162701ParaK
ScilabFFT processing block in XCOS2018-06-21 21/06/18244101shrinivas…
DWSIMBubble Column Reactor Substitute2018-06-20 20/06/18132801ParaK
ScilabGet all the file name of a directory in a list2018-06-19 19/06/18119201sarahi
Scilabdebugger acting screwy2018-06-19 19/06/18117000maxcy
ScilabI am finding it difficult to interpret this graph2018-06-18 18/06/18119800chandrash…
Scilabmore debugger questions2018-06-18 18/06/18120601maxcy
ScilabTemperature Distribution in a Square2018-06-17 17/06/18125101Karthik
Scilabprint Question2018-06-17 17/06/18115501maxcy
ScilabGaussian Elimination Tutorial again2018-06-17 17/06/18116200maxcy
Scilabposting question from the tutorial link doesn't work2018-06-17 17/06/18124901maxcy
Scilabdebugging a tutorial example2018-06-17 17/06/18178602maxcy
Scilabplotting a deff2018-06-16 16/06/18112401maxcy
Scilabhow to check if a random process in wss in scilab2018-06-16 16/06/18116301chandrash…
Scilabdebugging SciLab examples2018-06-15 15/06/18122801maxcy
Scilabdeveloping in SciLab2018-06-15 15/06/18113601maxcy
ScilabGaussian Elimination Tutorial2018-06-14 14/06/18192300maxcy
Scilabscilab posting question2018-06-14 14/06/18124601maxcy
Scilabspoken_tutorial site2018-06-11 11/06/18122701maxcy
ScilabMAC, can´t write to a file2018-06-10 10/06/18138801ot
eSimquestion and answer list out of date?2018-06-07 07/06/18111501johnCrobi…
ScilabScilab - Ballistic problem2018-06-05 05/06/18125000Yetem
eSimwhen I download eSim installer for windows Norton secrity rejects it2018-06-04 04/06/18116201johnCrobi…
DWSIMCompound not available2018-06-01 01/06/18145301Hemanand
DWSIMhelp about vinyl chloride2018-05-28 28/05/18118301M_A_P
DWSIMCrude Desalter Simulator2018-05-27 27/05/18128401vbs305
DWSIMseparator column in compound separater2018-05-26 26/05/18120001bheemesh
DWSIMfixing the output data for a given problem2018-05-26 26/05/18113401bheemesh
Scilab ToolboxChecking stationarity of a random process2018-05-26 26/05/18108001chandrash…
ScilabUnable to install FOSSEE Optimisation toolbox2018-05-25 25/05/18135301arian
ScilabHow to find inverse laplace transform in scilab2018-05-24 24/05/18328401chandrash…
PythonError in print statement2018-05-22 22/05/18103701manavsara…
Scilabscale of axes2018-05-22 22/05/18121701RudiLehn
DWSIMConversion reactor2018-05-22 22/05/18130304srwasan
DWSIMUNIQUAC package with default flash doesnot converge.2018-05-18 18/05/18129903teja9006
OpenFOAMUsing multiInteraction type patchInteractionModel2018-05-16 16/05/18137501surajiitk
eSimlooking for a VCO component2018-05-15 15/05/18114401cuichi
ScilabScilab-Isosurfaces2018-05-03 03/05/18122301lacastelos
ScilabHelp Scilab Isosurfaces2018-05-03 03/05/18114601lacastelos
ScilabIsosurfaces Scilab2018-05-03 03/05/18130101lacastelos
ScilabIsosurfaces - Help Scilab2018-05-03 03/05/18128501lacastelos
ScilabHow to do range filter of image??2018-05-02 02/05/18123501anil_mca4
ScilabHow do I retrieve a file from scilab that seems like it has been deleted?2018-04-28 28/04/18118501frida
ScilabError installing symbolic toolbox2018-04-25 25/04/18139901dhruvpalr…
DWSIMBrine evaporation in DWSIM2018-04-21 21/04/18129001nagarajka…
PythonRegarding review of given question2018-04-18 18/04/18111701darpitkau…
Scilabvery poor .pdf file2018-04-11 11/04/18115803maxcy
Scilabcompile and run is screwed up2018-04-11 11/04/18122102maxcy
eSimproblem with the analysis tab2018-04-06 06/04/18120601nivedita
ScilabMux/Demux vs Bus 22018-04-05 05/04/18120701Antonio
ScilabMux/Demux vs Bus2018-04-05 05/04/18166101Antonio
Pythonregarding task submision2018-04-04 04/04/18116102saitejmad…
DWSIMRegarding adding compuonds in DWSIM2018-04-04 04/04/18263801Priyam_Na…
DWSIMAbout unit operations in DWSIM2018-04-03 03/04/18138701Parth
OsdagOSDAG installation problem2018-04-02 02/04/18130401Yallamand…
Pythonhow to download certficate2018-03-31 31/03/18119401dharmesh7
eSimYour schematic contain unknown model lm317at2018-03-31 31/03/18149101sainathan…
Pythoncan miss any quiz generate problem in issue the certificate2018-03-30 30/03/18108701Abhi9839
ScilabCPGE MODULE Bode parms2018-03-30 30/03/18137701AVISHVAk
Pythoncan't attempt the quiz 52018-03-30 30/03/18111201Bhargavi
Pythoncan't attempt the quiz 62018-03-30 30/03/18107801Tulasi
eSimError while plotting python plot editor. How do i rectify it?2018-03-29 29/03/18123601Sushmitha
eSimAbout Kicad library2018-03-29 29/03/18122801PoonamCha…
Pythonmistakenly opened the quiz 12018-03-29 29/03/18114201dharmesh7
PythonQuize3 ragarding assignment submission #2018-03-28 28/03/18108201tejesh002
eSimkey error in source2018-03-28 28/03/18124401kavyadaya…
Osdagosdag is not opening2018-03-27 27/03/18125101sohilreddy
OsdagError while installation2018-03-26 26/03/18124601mokaeswar
PythonError in downloading certicate2018-03-25 25/03/18111701chetan_g
eSimHow to load components library2018-03-24 24/03/18126601ArshadRah…
eSimError while opening python plotting Editor. Please look at console for more det…2018-03-23 23/03/18135202SravaniIn…
Scilabhow to identify exe file in Scilab2018-03-23 23/03/18125502padmavati
Scilab ToolboxOctave Interface Toolbox not installing (FOSSEE 2018 Fellowship)2018-03-23 23/03/18108901a_Xiu
eSimShows that schematic contains unknown model2018-03-23 23/03/18126001VSKhamank…
Osdagexample.osi file not opening2018-03-22 22/03/18128301Subrata_1…
OsdagLAUNCHING OSDAG2018-03-22 22/03/18142202Hoshil_Pa…
eSimERROR: Your schematic contain unknown model jfet_n_pspice2018-03-22 22/03/18129502SravaniIn…
DWSIMCATALYST is not present2018-03-22 22/03/18141402e.santosh
eSimabout coding2018-03-21 21/03/18119301PoonamCha…
eSimWhy esim software is closing after few seconds after installing it2018-03-20 20/03/18124601ArshadRah…
OsdagThis is a Test Question for OSDAG2018-03-19 19/03/18125601user100
PythonDoes The yaksh course BPPY is availble Through out the year?2018-03-19 19/03/18146801dave
eSimerror while opening python plotting editor2018-03-19 19/03/18155201Mayankb23
ScilabScilab 2C toolbox2018-03-19 19/03/18133101Akhil
eSimComponents missing in " Choose Component "2018-03-19 19/03/18121201Mayankb23
Scilabwhat is this toolbox2018-03-18 18/03/18117301maxcy
Scilabwindows version of scimax2018-03-18 18/03/18135101maxcy
Scilabcompiling from scilab2018-03-18 18/03/18134202maxcy
eSimUnable to load all the components in the respective libraries2018-03-18 18/03/18119201SravaniIn…
Python'linspace' not defined in canopy editor2018-03-17 17/03/18261601ankurrj5xe
Scilab ToolboxError while installing ocatave interface toolbox, required for DSP toolbox2018-03-17 17/03/18113401iakashp
eSimUnable to create a project2018-03-17 17/03/18147201SravaniIn…
eSimError in project creation2018-03-17 17/03/18131701Udit
eSimerror while opening a schematic2018-03-16 16/03/18123201vaishnavi…
eSimesim source i am not able to access2018-03-16 16/03/18126401ELDHO_SOY
eSimerror with source detail2018-03-16 16/03/18126401shubhpriya
Pythoni have a list assume 10 data in the list. If i want to remove number 3 to 8 dat…2018-03-16 16/03/18109001jitendra
Scilabcall_scilab help file questions2018-03-16 16/03/18124200maxcy
Osdagosdag software not opening2018-03-15 15/03/18165801Subrata_1…
ScilabDesign of fir filters using windowing technique2018-03-14 14/03/18134800chandrash…
PythonWhere can I find the data files and images required for the course?2018-03-13 13/03/18137501anuragr
eSimua741 pin details2018-03-13 13/03/18121002ashish
eSimAll the components are not downloaded.2018-03-12 12/03/18121501gaytripra…
PythonWhere can i found Python course?2018-03-12 12/03/18112702marmikp58…
eSimerror: dos not contain any kicad netlist file for conversion2018-03-12 12/03/18140001shubhpriya
Scilabscilab and linux2018-03-11 11/03/18135001maxcy
Pythonimport error2018-03-11 11/03/18108101tharunare…
Scilab Toolboxlinux and Scilab2018-03-10 10/03/18117101maxcy
PythonInterface to submit questions.2018-03-09 09/03/18131501shubhansh…
ScilabScilab Symbolic Toolbox2018-03-09 09/03/18342502maxcy
Scilabatoms toolbox and syms2018-03-08 08/03/18135200maxcy
OpenFOAMWhy Initial residual is not equal to the final residual obtained from the previ…2018-03-07 07/03/18173401ankur_garg
eSimcannot open project2018-03-07 07/03/18153903agrahara
eSimissue regarding number of ports2018-03-05 05/03/18122501anudeepbo…
ScilabConvolutional Neural Network2018-03-05 05/03/18154001advait
Scilabis the cloud working2018-03-05 05/03/18123201maxcy
Scilabevans code example not working2018-03-05 05/03/18152801maxcy
eSimPython plotting missing2018-03-04 04/03/18126401sounndarr…
Scilabwhat is syms and how does it affect the code2018-03-04 04/03/18471502maxcy
Scilabsgrid from definition example2018-03-03 03/03/18120702maxcy
eSimNot able to start up the schematics.2018-03-03 03/03/18125101bunty.him
Scilabrerunning cloud code2018-03-03 03/03/18123601maxcy
Scilaba warning message2018-03-03 03/03/18153601maxcy
Scilabimporting .sce file2018-03-03 03/03/18173302maxcy
eSimCannot find 'eSim_' files in the components library2018-03-02 02/03/18120401rishabhsm…
Scilabwhy do we plot digital filter spectrum on 0 - 0.5 only2018-03-02 02/03/18123901chandrash…
Scilabxgrid() is a no show2018-03-02 02/03/18124502maxcy
Scilabcopying code doesn't wotk2018-03-01 01/03/18129402maxcy
ScilabConvolutional Neural Network using the Caffe model2018-03-01 01/03/18137600advait
eSimsimulation problem in cmos inverter2018-03-01 01/03/18127202ajinkya_b…
eSimCan't seem to create a new project2018-03-01 01/03/18138002rishabhsm…
Scilabcsim coding question2018-03-01 01/03/18122601maxcy
Scilabcloud book examples not working2018-02-28 28/02/18138101maxcy
Scilabroot locus code from scilab book2018-02-28 28/02/18236902maxcy
Pythoncanopy not available2018-02-28 28/02/18105801HarishSin…
Scilabroot locus problem2018-02-28 28/02/18129904maxcy
Scilabroot locus example problem2018-02-28 28/02/18121201maxcy
Scilabevans example problem2018-02-28 28/02/18120401maxcy
Scilabevans example problem2018-02-28 28/02/18120601maxcy
Scilabevans example problem2018-02-28 28/02/18122501maxcy
DWSIMDehydration Plant Simulation2018-02-27 27/02/18119402HaareshAu…
ScilabReview duration2018-02-27 27/02/18119501dhruvpalr…
eSimSquare wave in eSim2018-02-27 27/02/18125702ajinkya_b…
Scilabmatrix operator2018-02-24 24/02/18126204maxcy
eSimNon available componant2018-02-24 24/02/18114101jrangaraj…
Scilabcode syntax question from example code2018-02-23 23/02/18124102maxcy
FOSSEE LaptopDIFFICULTY IN INSTALLING AND RUNNING OPTIMIZATION TOOL BOX2018-02-23 23/02/18108501varadaraj…
ScilabAlternate instruction in scilab for filtic in matlab2018-02-23 23/02/18157201Raji
Scilabcode syntax question2018-02-22 22/02/18122102maxcy
ScilabMatlab equivalent2018-02-21 21/02/18147403maxcy
eSimUNKNOWN MODEL-lm555n2018-02-20 20/02/18124201shekhar
DWSIMDehydration Plant2018-02-19 19/02/18130201HaareshAu…
ScilabCan anyone help me figure out how to work with microdaq2018-02-16 16/02/18132501chandrash…
eSimtransient analysis2018-02-16 16/02/18136402sounndarr…
Scilabsetup GUI home page2018-02-16 16/02/18124102maxcy
Scilab ToolboxFOSSEE optimization toolbox does not load under Scilab 5.5.2/Windows 72018-02-12 12/02/18116402mottelet
Scilab-Arduinonot able to open the icon2018-02-10 10/02/18122802nilashri
Scilabregarding XCOS2018-02-10 10/02/18123102nilashri
eSimPython plot error-reg2018-02-05 05/02/18137302Jeevashub…
eSimWaveform generation2018-02-05 05/02/18125601KarthikaK
eSimvcc supply-reg2018-02-04 04/02/18125101Jeevashub…
DWSIMProble with opening DWSIM file into software2018-02-02 02/02/18154201sbdongare
eSimno python plot2018-01-26 26/01/18124001sounndarr…
DWSIMKinetic reaction2018-01-21 21/01/18137801Divyansh_…
eSimcommand not found2018-01-14 14/01/18143001sounndarr…
DWSIMRigorous Distillation2018-01-12 12/01/18161101Divyansh_…
DWSIMPFR step size error2018-01-11 11/01/18131001Rutuaj24
eSimhow to open a new project?2018-01-10 10/01/18141401VENKATTAP…
eSimPython Plot error2018-01-07 07/01/18136401shefali04
ScilabWorking with scilab (DSP Lab) and Texas instruments dsp processor2018-01-05 05/01/18200404chandrash…
eSimWhat exactly eSim is?2018-01-04 04/01/18120502siddheshc…
FOSSEE Laptopliblapack.so.3gf2018-01-03 03/01/18117401ulima
DWSIMDisplaying reaction results2017-12-31 31/12/17123201Divyansh_…
eSimHow to give inputs to the IC's2017-12-28 28/12/17137401A.Karthik
eSimHow to set a Path?2017-12-27 27/12/17126102VENKATTAP…
eSimHow to work with This Software in Laptop?2017-12-27 27/12/17121503VENKATTAP…
ScilabProblem with visualisatioin of output of chebyshev type one filter.2017-12-24 24/12/17149501chandrash…
DWSIMcan you suggest me the solution for the error I'm getting while designing metha…2017-12-22 22/12/17134101Harshali
Scilabinput function is behaving in a inconsist function2017-12-20 20/12/17234001chandrash…
eSimunable to give title of the project.2017-12-20 20/12/17126202A.Karthik
ScilabProblem with input command in scilab for reading mulitiple data2017-12-20 20/12/17123301chandrash…
Scilab2d graph. Powers of a variable.2017-12-16 16/12/17131411Abbas
ScilabProblem with design of iir lpf filter.2017-12-15 15/12/17131502chandrash…
eSimpython plotting error and global label error2017-12-15 15/12/17149301Vignesh
eSimesim installation problem2017-12-13 13/12/17239118shekhar
eSimgraphical error2017-12-12 12/12/17121602sounndarr…
eSimunable to use eSim sources2017-12-09 09/12/17146502amolbedar…
ScilabProblem in visualistion of the output2017-12-09 09/12/17129501chandrash…
ScilabProblem installing Scilab 6.0 on ubuntu 16.04 LTS2017-12-06 06/12/17144201chandrash…
ScilabSteps to install scimax toolbox on Scilab2017-12-06 06/12/17149101sudip.26
eSimconversion error, unknown component2017-12-02 02/12/17139703sounndarr…
ScilabFIR Filter design2017-12-01 01/12/17128501Akhtar
ScilabProblem finding the DFT of the sequence as the length of sequence increases2017-11-30 30/11/17316001chandrash…
OpenFOAMLooking for Solver for Three Phase Heat Transfer with phase change for Cryogeni…2017-11-29 29/11/17142801arezes
ScilabN point FFT calculation2017-11-28 28/11/17132402chandrash…
OpenFOAMResource persons for OPENFOAM Software.2017-11-22 22/11/17134901thprasads
eSimProblem in opening the schematic window after double clicking the esim icon.2017-11-15 15/11/17146114kksundari…
Scilabproblem matrix dimension2017-11-13 13/11/17130001Timmy
ScilabThe Weierstrass-Mandelbrot curve2017-11-12 12/11/17137601Deniro
eSimsteps to do after getting an approved mail2017-11-11 11/11/17120601AKSHAYA
eSimerror while using thyristor.2017-11-09 09/11/17134502sheena
eSimCircuit Rules check error in Gnd2017-11-07 07/11/17124901Gokul
eSimfinding input signal2017-11-06 06/11/17129001sounndarr…
eSimerror in ERC2017-11-06 06/11/17133907sounndarr…
ScilabWeiner kinchin relation code2017-11-06 06/11/17146201chandrash…
eSim'plot_data_i.txt' and 'plot_data_v.txt' files cannot be created. why is this ha…2017-11-04 04/11/17141703sheena
eSimerror while simulating the schematic.2017-11-02 02/11/17137002sheena
DWSIMDWSIM for membrane separation2017-10-30 30/10/17212101faya
OpenModelicaModelling a Spark Plug for simulation project.2017-10-30 30/10/17133801Leong
eSimabstract submission2017-10-28 28/10/17131201KarthikSr…
eSimCIRCUIT SIMULATION PROPOSAL FORM SUBMIT ERROR2017-10-24 24/10/17139802CHETAN1994
eSimlast date for circuit simulation2017-10-23 23/10/17131401sounndarr…
eSimComponents not Available2017-10-20 20/10/17131701dharm_007
eSimhow to simulate 555 timer based astable multivibrator with esim?2017-10-19 19/10/17169802anil
eSimLaunching esim on my pc.2017-10-18 18/10/17121805Telegenic
eSimproiect name error2017-10-18 18/10/17127901Abhilash_…
Scilab ToolboxA Missing Block (OTA) in Xcos tool box2017-10-16 16/10/17115101NarayanaK…
Scilab ToolboxIs a PHARMACY background STUDENT can develop a TCB2017-10-13 13/10/17111211prashant8…
ScilabHOW TO USE SCILAB FOR PHARMACY EDUCATION REGARDING ACTION AND REACTION OF CHEMI…2017-10-13 13/10/17128101prashant8…
PythonIs a computer background student can develop a TCB2017-10-13 13/10/17126201Anjusiva
eSimproposal form2017-10-11 11/10/17134801sjitm
eSimwhere can i find a 3-phase ac source.2017-10-10 10/10/17128901Abhinay123
eSimProposal Form for circuit simulation project.2017-10-09 09/10/17193701Abhinay123
DWSIMDownloading the Tutorials2017-10-03 03/10/17146801akash.son…
DWSIMIssue in DWSIM Software Installation2017-10-02 02/10/17149101akash.son…
ScilabGlitch in Scilab version 62017-09-17 17/09/17138701prnaren
DWSIMThree phase open-source library2017-09-13 13/09/17134001simon
DWSIMThree phase library open-source2017-09-13 13/09/17141901simon
DWSIMcan we use DWSIM for simulutions for a spray or rotay drier systems2017-09-07 07/09/17167901bhagathra…
OpenFOAMdiffusivity directional variables2017-08-30 30/08/17155001ashok
ScilabStand alone exe. from Scilab 6.0.02017-08-24 24/08/17157401antony
Scilab ToolboxInstallation problem2017-08-19 19/08/17122901SRS24
ScilabInverted graph2017-08-19 19/08/17132101rajeshbm
Pythonunable to install canopy2017-08-18 18/08/17129601ulfa
ScilabCommands: syms, laplace, ilaplace2017-08-15 15/08/17375201ojumut
DWSIMinternship details2017-08-14 14/08/17134101goyalakash
OpenFOAMchange of volume inside pipe2017-08-11 11/08/17146503ashok
Scilabinput problem2017-08-11 11/08/17249401jsant100
DWSIMRegarding Submission of flow sheet and its deadline.2017-08-07 07/08/17140101miral
eSimhai friends caan any one resolve the problem attached in images?2017-08-05 05/08/17129801mahesh
ScilabIncorrect polynomial operations?2017-08-04 04/08/17135701leohpaz
ScilabCan't convert old diagram (problem in version) while using To Workspace (xcos)2017-08-02 02/08/17141001leohpaz
OpenFOAMOpenFOAM Issue with Porous Media and Buoyancy2017-08-02 02/08/17850301rudhkul
Scilab Toolboxexample problem required for understanding.2017-07-31 31/07/17126601ravinder.…
DWSIMAssigning operating pressure for distillation column2017-07-27 27/07/17152601mbali20
ScilabParticleLabeling with IPCV toolbox command imlabel2017-07-26 26/07/17142701Hackmet
ScilabQuery regarding submission of code2017-07-20 20/07/17135101amitkumar…
ScilabIs it possible convert a PSPICE code to scilab code?2017-07-17 17/07/17143101amitkumar…
OpenFOAMvertical loading in interfoam2017-07-11 11/07/17141401hsai1991
OpenFOAMConvergence while using icoFoam2017-07-06 06/07/17158901ankur_garg
eSimUnable to load footprints while opening CvPcb2017-07-05 05/07/17177702HARISHBHAT
eSimUnable to map footprints2017-07-04 04/07/17135302HARISHBHAT
OpenFOAMSimulation Of Flow over cylinder with forward splitter plate2017-07-03 03/07/17141601maheshtom
ScilabImage in GUI2017-07-03 03/07/17148301jayati
eSimUNABLE TO INSTALL IN UBUNTU16.04 LTS2017-06-28 28/06/17139001mahesh
ScilabLab Migration Proposal2017-06-19 19/06/17136001dimple
ScilabProblem with xls_link Scilab tool2017-06-16 16/06/17144901MrWhite10
eSimCan't install eSim 1.1.2 on Ubuntu 162017-06-12 12/06/17141803pldissana…
OpenFOAMOpenFOAM-1.6.x Installation Error2017-06-07 07/06/17147701Samarendra
Scilabhttps://help.scilab.org/ not working2017-06-06 06/06/17160502ramprasad…
ScilabDubugging in Scilab2017-06-06 06/06/17146502ramprasad…
SBHSError while running program2017-06-01 01/06/17144101lalitchau…
ScilabImage processing performance2017-05-31 31/05/17145302Hackmet
Pythonhow to join the course2017-05-27 27/05/17132201anjU
Scilab ToolboxBlob Detection and Analysis2017-05-22 22/05/17128102teju5531
ScilabScilab problem2017-05-22 22/05/17139901skitlesas
ScilabScilab task problem2017-05-22 22/05/17141802skitlesas
ScilabNeed help with scilab task2017-05-21 21/05/17139601skitlesas
eSimeSim ibraries missing2017-05-20 20/05/17129601Franky
OpenFOAMDynamic Moving Mesh2017-05-20 20/05/17142801Samarendra
OpenFOAMHow to Create Baffles in Geometry2017-05-17 17/05/173541-11ankur_garg
Scilabscilab version 6 related problem2017-05-17 17/05/17147601ruchisingh
eSimPassing option to ngspice2017-05-15 15/05/17134102buleks
DWSIMstep size becomes too small error in plug flow reactor2017-05-14 14/05/17163001Nikhil
DWSIMdouble clicking not opening main editing window2017-05-12 12/05/17144401Nikhil
Scilab"Abort" command in Scilab 6.0.02017-05-08 08/05/17245203Hackmet
Scilabimage processing error in scilab2017-05-05 05/05/17142102gowtham22…
ScilabSample source file in book proposal form2017-05-05 05/05/17135602amitkumar…
ScilabError while opening scilab.2017-05-03 03/05/17232101gowtham22…
Scilabproblem with the opening environment window.2017-05-01 01/05/17157402GVP
DWSIMMulti component Distillation2017-04-25 25/04/17182601RajatSuva…
OpenFOAMHow to create a internal gate?2017-04-25 25/04/17181701hsai1991
OpenFOAMCannot find flow at bottom surface_slump test2017-04-25 25/04/17149204ashok
OpenFOAMplotting at a definite point2017-04-14 14/04/17155101SUBHANKAR
OpenFOAMgetting time-average flow fields within certain time interval2017-04-09 09/04/17226401SUBHANKAR
OpenModelicaHOW TO APPROACH MULTIBODY SYSTEM IN OPEN MODELICA2017-04-07 07/04/17139002DURAISAMY
ScilabQuestion for plotting 2D2017-04-05 05/04/17444603chanyau11…
OpenFOAMplotting skin friction coefficient2017-04-03 03/04/17298601SUBHANKAR
OpenFOAMlaminar separation bubble2017-04-02 02/04/17138101SUBHANKAR
OpenFOAMSnappyHexMesh Tutorial2017-04-01 01/04/17196801ankur_garg
Scilabxcos - rfile_f - input format2017-03-31 31/03/17211701ebike_dev
ScilabHow to define variable for a matrix?2017-03-29 29/03/17143601emerson.g…
OpenFOAMpressure plot in paraFoam2017-03-27 27/03/17261601SUBHANKAR
eSimError trying to create schematic (Ubuntu running under Win10)2017-03-24 24/03/17303206lreni
eSimngspice not running in eSim2017-03-22 22/03/17146304RG190564
eSimWarning at starting eSim and error at calling ngspice2017-03-21 21/03/17139701RG190564
DWSIMUnbalanced equation2017-03-19 19/03/17151402nas.fiq
Scilabscilab simulation error 21; Invalid index.2017-03-18 18/03/17555201adiblhf
Scilabsimulation problem2017-03-17 17/03/17150001adiblhf
eSimSOFTWARE IS NOT WORKING2017-03-17 17/03/17147701ajitsingh
OpenFOAMpost-processing in paraview2017-03-10 10/03/17190401SUBHANKAR
DWSIMDWSIM components2017-03-08 08/03/17171402nirbhay13…
OpenFOAMHow to find/call each individual cell in a computational domain2017-03-08 08/03/17349403sarojdip
ScilabSimulation of pipe flow2017-03-01 01/03/17149201jasvinder
Scilab ToolboxImage read and display problem2017-02-24 24/02/17185301ramansast…
eSimQuery Related Esim2017-02-24 24/02/17134301Sunil4u
FOSSEE LaptopTest Question2017-02-23 23/02/17121901test
ScilabVelocity profile2017-02-16 16/02/17136101jasvinder
Scilab Toolboxplease specify the complete detailed instruction of installing scilab symbolic …2017-02-10 10/02/17142501dhatta
Scilab2D Lookup Table: How to do it??2017-02-07 07/02/17196202Prof.X
ScilabCompile call_scilab in c++ using Eclipse IDE Helios Service Release 22017-02-04 04/02/17166101phamish20…
Scilabscilab cloud2017-02-03 03/02/17160703girishl
SBHSMachine ID 62017-02-03 03/02/17137701140020009
ScilabQUESTION IS x(t)=exp(a*t) while a>12017-01-26 26/01/17163911dhatta
OpenFOAMmultiPhaseEulerFoam case running issue..2017-01-17 17/01/17191301sarojdip
OpenFOAMBasic queries regarding cad, mesh and sim2017-01-16 16/01/17149302Rawnap07
ScilabXcos Block Wizard2017-01-16 16/01/17176001Shigeru
DWSIMRECYCLE STREAM2017-01-10 10/01/17249901thubelihle
ScilabHow to load file .dat with true variable name2017-01-07 07/01/17315303dafri
Scilabusage of scilab2016-12-30 30/12/16185601lipikasar…
DWSIMSIMULATION inquiry2016-12-29 29/12/16156502thubelihle
Scilabplot crashes using scf under Xubuntu2016-12-28 28/12/16145701sebf
ScilabsciFLT toolbox - Unable to load block from...2016-12-25 25/12/16192501DLakomy
DWSIMHEAT EXCHANGER2016-12-04 04/12/16179601thubelihle
DWSIMOPEN SOURCE APPLICATION2016-12-03 03/12/16160005thubelihle
DWSIMFLASH DRUM SEPARATOR2016-12-03 03/12/16166801thubelihle
ScilabXcos: an equivalent simulink palette2016-12-01 01/12/16164301Naiara
eSimnot getting frequency response2016-11-26 26/11/16140301bibek
eSimnot fetting correct result2016-11-24 24/11/16136401bibek
OpenFOAMpost-processing problem2016-11-23 23/11/16179001SUBHANKAR
eSimNor getting coorrect output for a clamper circuit2016-11-23 23/11/16152201bibek
ScilabIPD BlobStatistics2016-11-22 22/11/16143401AllenMar
ScilabHow to install E4coder in Scilab2016-11-22 22/11/16151701Mohamed
ScilabAdding a non-numerical header for a text file of numerical column values in Sci…2016-11-21 21/11/162066017Farhan
ScilabCombining two text files to one in Scilab2016-11-21 21/11/16165201Farhan
OpenFOAMproblem in results2016-11-21 21/11/16152102SUBHANKAR
ScilabfscanfMat in GUI (PushButton)2016-11-18 18/11/16153402Hackmet
ScilabfscanfMat via PushButton?2016-11-18 18/11/16148102Hackmet
eSimNot getting the correct Python plot2016-11-18 18/11/16148501bibek
Scilabmaking a circle looking like a circle2016-11-16 16/11/16303202moon61
ScilabHelp required in running a C program in scilab2016-11-16 16/11/16220306Vijay_Kar…
eSimeSim on BOSS Linux (anoop)2016-11-14 14/11/16142001madhan
ScilabPlotting coordinates2016-11-11 11/11/16144301AllenMar
ScilabRandom binary sequence generator2016-11-10 10/11/16176501ashutumho
ScilabImplementing Matlab function in scilab2016-11-10 10/11/16156601Nisha
ScilabBitBucket Repo2016-11-09 09/11/16139902Anuradha
ScilabCACSD toolbox install2016-11-06 06/11/16150201Survinder…
OpenFOAMopenfoam to firefoam throuh paraview?2016-11-01 01/11/16210103francesco…
OpenFOAMNo vortex shedding2016-10-31 31/10/16157601SUBHANKAR
ScilabHow to install scilab communication toolbox for Scilab 5.5.12016-10-29 29/10/16158801kavyamano…
ScilabHow to draw gear profile.2016-10-26 26/10/16152301Prashant05
OpenFOAMparaview tools2016-10-21 21/10/16162101SUBHANKAR
OpenFOAMerror while running a solver2016-10-13 13/10/16690901SUBHANKAR
OpenFOAMSurfaceTracking2016-10-06 06/10/16158901Arahata
eSimSimulation not working. Error while opening phyton plotting editor2016-09-29 29/09/16147401memobecer…
eSimSimulation not working2016-09-29 29/09/16142201memobecer…
OpenFOAMboundary condition2016-09-26 26/09/16147001SUBHANKAR
OpenFOAMplotting the residuals2016-08-23 23/08/16281301SUBHANKAR
eSimdc analysis reg2016-08-18 18/08/16137001krishna
OpenFOAMplotting in paraview2016-08-16 16/08/16151402SUBHANKAR
eSimRun setup2016-08-08 08/08/16219401Shubham
eSimDC Analysis _reg2016-08-04 04/08/16167702krishna
OpenFOAMco-efficient of drag and lift2016-08-03 03/08/16173404SUBHANKAR
OpenFOAMopemFoam2016-08-02 02/08/16167002mrinal
Scilabsivp TOOLBOX2016-07-22 22/07/16218506amol_gp
eSimerror while opening python plotting error2016-07-21 21/07/16168201Ramu
OpenFOAMPROBLEM2016-07-21 21/07/16168501SUBHANKAR
Scilabunable to install SIVP2016-07-20 20/07/16183801amish
eSimUnable to install eSim on Ubuntu2016-07-19 19/07/16172701Ramu
eSimInjecting noise2016-07-16 16/07/16166801dangel
eSimexecution error reg2016-07-13 13/07/16159001krishna
ScilabScimax - Scilab Symbolic Toolbox2016-07-12 12/07/16293604gsanchit1…
eSimExecution reg2016-07-11 11/07/16162803krishna
eSimregarding Lab migration project2016-07-09 09/07/16155901bjena
ScilabScilab Xcos2016-07-06 06/07/16270101jalpa
ScilabScilab 5.5.2 - Xcos2016-07-06 06/07/16498605jalpa
eSimpython plotting window does not open up (On latest build of eSim)2016-06-26 26/06/16182603kavyamano…
eSiminstallation reg2016-06-24 24/06/16167801krishna
OpenFOAMblockmeshdict file2016-06-23 23/06/16170801SUBHANKAR
ScilabSCILAB certification2016-06-22 22/06/16192101miniranis
ScilabSCILAB code for lotka voltera model2016-06-19 19/06/16185501amol_gp
ScilabNumerical Linearization (CACSD tool)2016-06-15 15/06/16178903madhan
OpenFOAMWriting blockMeshDict file2016-06-14 14/06/16173501SUBHANKAR
eSimeSim not working in windows 102016-06-06 06/06/16175901dangel
eSimundetaking form2016-05-31 31/05/16157801bjena
eSimesim training on skype2016-05-31 31/05/16158901bjena
DWSIMNew Compound Creator Study2016-05-26 26/05/16296901akashbt
OpenFOAMobject inspector menu in paraview2016-05-25 25/05/16195101SUBHANKAR
ScilabAnswer format in scilab2016-05-16 16/05/16245401nihalbisen
OpenFOAMTROUBLE IN SIMULATION2016-05-15 15/05/16198202SUBHANKAR
OpenFOAMSimulation of Euler-lagrangian bubble using OpenFOAM2016-05-11 11/05/16242402anirbanmo…
OpenFOAMOPENFOAM IN WINDOWS2016-05-10 10/05/16209401SUBHANKAR
eSimProblem in getting started with eSim2016-05-06 06/05/16183502jebi
ScilabError in graphic plot2016-05-03 03/05/16189701mipeli
DWSIMHow to install and run DWSIM on MAC AIR?2016-04-25 25/04/16212102dprao
ScilabDebug a function plot2016-04-25 25/04/16350704rinkley
OpenFOAMHow to plot a graph in Open foam2016-04-24 24/04/16272701KVK
eSimproblem in creating project2016-04-23 23/04/16184201teny
DWSIMCreating component hypothetically2016-04-22 22/04/16410302krunal
ScilabReading a wav file2016-04-21 21/04/16192302Muralikri…
eSimscilab contourf plot axis scaling2016-04-06 06/04/16177901max0924051
Scilabscilab plot contourf2016-03-31 31/03/16203503max0924051
eSimincorect ac simulaton2016-03-29 29/03/161649011mikimous…
eSimeSim Eeschema Diode component problem.2016-03-24 24/03/16189901Winderson
eSimunable to simulate dc power supply2016-03-23 23/03/16166201ankush
eSimImpossibilité de créer un subcircuit.2016-03-22 22/03/16172301jptt
eSimImpossibilité de créer un subcircuit.2016-03-22 22/03/16163603jptt
OpenFOAMError in Turbulence Solver2016-03-18 18/03/16766906KVK
eSimEnable to find AC voltage source2016-03-15 15/03/16332702ankush
Scilabplot sin(x)/x2016-03-14 14/03/16227602RudiLehn
OpenFOAMSimulation error (delta T is decreasing while the iterations are being carried …2016-03-13 13/03/16695505KVK
FOSSEE LaptopCost and postal charge2016-03-11 11/03/16184601arasu
eSimInstallation error2016-03-10 10/03/16237301alex
Scilabsurf color with OS X2016-03-06 06/03/16177403RudiLehn
eSimTesting Forum Reply2016-03-01 01/03/161800011fahim
eSimUnable to get details of source2016-03-01 01/03/16190505ankush
ScilabVehicle Count2016-02-27 27/02/16217901chinnur010
DWSIMEquilibrium reactor simulation2016-02-26 26/02/16531302Parul_sah…
eSimRegarding footprint2016-02-25 25/02/16163503pankaj
Scilabreading dcm images - error2016-02-16 16/02/16209001dr.cs1973
Scilabmpi in scilab2016-02-14 14/02/16183801Vadim
FOSSEE LaptopHindi Typing Layout2016-02-13 13/02/16146002sai
FOSSEE LaptopKiwix - Offline Wikipedia2016-02-11 11/02/16140401sai
DWSIMTextbook companion project2016-02-10 10/02/16182702vigneshve…
Scilabdrop2016-02-10 10/02/16183003JeniVenit
Python"syms" not taking help!2016-02-09 09/02/16157001rishabhra…
eSimUnable to run the simulation2016-02-09 09/02/16185404balu.eee2…
eSimError while opening python plotting Editor.2016-02-05 05/02/16193204yogi
FOSSEE Laptopfeatures of laptop2016-01-29 29/01/16155202janabhask…
eSimlab migration programe2016-01-29 29/01/16168001janabhask…
ScilabFlood fill Operation in Scilab2016-01-20 20/01/16256301saraths
eSimunable to install e sim on linux2016-01-18 18/01/16171701yogi
eSimunable to install e sim on linux2016-01-18 18/01/16180501yogi
eSimGetting errors when simulating the basic logic gates2016-01-18 18/01/16174901abaruah
eSimSimulation of basic logic gates2016-01-18 18/01/16167801abaruah
eSimSimulation of basic logic gates2016-01-18 18/01/16245503abaruah
eSimError while openinf python plotting Editor2016-01-18 18/01/16178002abaruah
FOSSEE Laptopaudio-video recorded by kazam2016-01-14 14/01/16133702sai
eSimabout istallation on ubuntu2016-01-11 11/01/16169301yesmahi
ScilabHow to make and display calculation Table using scilab.2016-01-11 11/01/16508901taneja
FOSSEE Laptopoffline wikipedia2016-01-09 09/01/16134901sai
ScilabSolution provided in book is wrong2016-01-06 06/01/16193201taneja
ScilabShould answer in book exactly match the one from your code.2016-01-05 05/01/16190102taneja
DWSIMConversion of Reaction2016-01-04 04/01/16223901maniktheg…
FOSSEE LaptopHow can I get Fossee Laptop2016-01-01 01/01/16137501shridhar_…
DWSIMUnavailability of compounds in Database2015-12-24 24/12/15257302Y.K.Aravi…
DWSIMTEXTBOOK COMPANION INTERNSHIP2015-12-23 23/12/15187301maniktheg…
ScilabWavelet transform in scilab2015-12-12 12/12/15324802aseemsr
eSimRight pane of footprint editor is empty2015-11-25 25/11/15182601kavyamano…
eSimI am unable to Install eSim software.2015-11-25 25/11/15189101balu.eee2…
eSimRegarding IN/OUT pin configuration2015-11-06 06/11/15180502upk345
eSimunable to add LM741 subcircuit2015-11-04 04/11/15198102sunitha
eSimConduction of workshop regarding2015-10-31 31/10/15165101boomaeeef…
Osdagmazhar2015-10-27 27/10/15159102mazhar
eSimunable to open esim source to place sine wave2015-10-25 25/10/15175102muqeeth
eSimEsim Not supported in Windows10-Reg2015-10-24 24/10/15181701srimaky
eSimunable to create project2015-10-24 24/10/152569-12muqeeth
eSimHow to plot voltage Vs current through a diode (Diode chara.)2015-10-23 23/10/15239204kavyamano…
eSimProblem regarding current direction.2015-10-21 21/10/15166501samre1234
eSimhow to measure resistance2015-10-21 21/10/15160701samre1234
DWSIMTransient simulations and Stream wise report2015-10-21 21/10/15221801prnaren
eSimMeasurement of resistance in eSim.2015-10-18 18/10/15156301samre1234
eSimTo measure and plot the branch current.2015-10-16 16/10/15172001samre1234
eSimInstallation with Windows2015-10-15 15/10/15190502srinaths
FOSSEE Laptopbrightness decreases after 10-15 seconds2015-10-15 15/10/15139601Deepak
eSimError while opening python plotting editor.2015-10-14 14/10/15183002samre1234
eSimAPR33A32015-10-08 08/10/15167301Swetha
eSimyour schematic contains an unknown component vplot8_12015-09-26 26/09/15219801samre1234
eSimYour schematic contain unknown model tl0722015-09-22 22/09/15187701Ebardie
eSimWIndows installation2015-09-22 22/09/15209603Ebardie
FOSSEE Laptopmouse pad and LAN2015-09-20 20/09/15136801150100063
FOSSEE Laptopunable to download flash player2015-09-15 15/09/15142701Deepak
FOSSEE Laptopmouse pad + keybord2015-09-14 14/09/15136301Jogendra
FOSSEE Laptopregarding password2015-09-14 14/09/15136201150260019
SandhiWhile creating up counter block in python getting following erros at cmake2015-09-08 08/09/15166311Ashwini
SandhiWhile generating up counter block getting following error at cmake2015-09-08 08/09/15148101Ashwini
Sandhisandhi installation error2015-09-03 03/09/15154901Ashwini
Sandhi"Sandhi" installation2015-09-03 03/09/15149801Ashwini
OpenFOAMcharger making sparking like noise2015-08-31 31/08/15175401150020063
SandhiError Message2015-08-31 31/08/15154202Ashwini
FOSSEE Laptopkeyboard2015-08-26 26/08/15149601bittu
FOSSEE LaptopHotspot2015-08-25 25/08/15146102akshaykha…
SandhiWay to create block in Python2015-08-24 24/08/15186701Ashwini
FOSSEE LaptopInternet not working through lan cable2015-08-23 23/08/15142602akshaykha…
FOSSEE Laptopcamera2015-08-23 23/08/15137101Deepak
SandhiBy default it is taking C++ language.Why not asking for language?2015-08-13 13/08/15152601Ashwini
Sandhiwhile running make command I am getting following error2015-08-06 06/08/15155100Ashwini
Scilab-ArduinoError while executing exec loader.sce2015-08-05 05/08/15209202kinitrupti
Scilab-Arduinocommunication over ethernet instead of usb2015-08-05 05/08/15160101Rajaneesh…
Scilab-ArduinoWhich macros is being used? .sci or .bin!!!2015-08-05 05/08/15139702Rajaneesh…
Scilab-Arduinomodification in firmware for pwm freq setup2015-08-05 05/08/15160901Rajaneesh…
SandhiWhile developing source block in sandhi getting errors:2015-08-05 05/08/15157500Ashwini
Sandhigrep2015-08-04 04/08/15157700Ashwini
Scilab-ArduinoCost of Arduino board with shield2015-08-04 04/08/15153402Siva_J
SandhiI want to implement same block as constatnt block2015-07-28 28/07/15156202Ashwini
Scilab-ArduinoUnable to upload program with Scilab Arduino Toolbox2015-07-26 26/07/15216506Navdeep
SandhiI want to change number of input2015-07-23 23/07/15157201Ashwini
Sandhii have module named as D into that block sub. Now i am going to create another …2015-07-23 23/07/15170601Ashwini
FOSSEE Laptophow to enter bios setup2015-07-16 16/07/15153911namitkasl…
SandhiPorting Sandhi program on website2015-07-16 16/07/15156800anamaykane
FOSSEE LaptopNot able to install Flash Plugin in Firefox on FOSSEE2015-07-15 15/07/15145901namitkasl…
SandhiScilab code to Sandhi block2015-07-13 13/07/15168903anamaykane
FOSSEE Laptopprinter2015-05-06 06/05/15192026rodneyber…
PythonCheck if a file exists using Python2015-03-27 27/03/15188605test2
FOSSEE LaptopDamped audio through speakers and headphone2015-03-26 26/03/15159711Srikant